Time,TemperatureF,DewpointF,PressureIn,WindDirection,WindDirectionDegrees,WindSpeedMPH,WindSpeedGustMPH,Humidity,HourlyPrecipIn,Conditions,Clouds,dailyrainin,SolarRadiationWatts/m^2,SoftwareType,DateUTC
2013-02-09 00:01:00,51.1,35.5,30.12,ESE,117,3.0,3.0,55,0.00,,,0.00,0,Wunderground v.1.15,2013-02-09 06:01:00,
2013-02-09 00:03:00,51.1,35.9,30.13,ESE,117,3.0,4.0,56,0.00,,,0.00,0,Wunderground v.1.15,2013-02-09 06:03:00,
2013-02-09 00:04:00,51.1,35.9,30.13,ESE,117,3.0,4.0,56,0.00,,,0.00,0,Wunderground v.1.15,2013-02-09 06:04:00,
2013-02-09 00:07:00,51.1,35.9,30.13,ESE,121,3.0,7.0,56,0.00,,,0.00,0,Wunderground v.1.15,2013-02-09 06:07:00,
2013-02-09 00:12:00,50.9,35.7,30.12,ESE,119,3.0,5.0,56,0.00,,,0.00,0,Wunderground v.1.15,2013-02-09 06:12:00,
2013-02-09 00:13:00,50.9,36.2,30.12,ESE,121,3.0,5.0,57,0.00,,,0.00,0,Wunderground v.1.15,2013-02-09 06:13:00,
2013-02-09 00:14:00,50.9,36.2,30.12,ESE,122,3.0,5.0,57,0.00,,,0.00,0,Wunderground v.1.15,2013-02-09 06:14:00,
2013-02-09 00:19:00,50.7,36.5,30.11,ESE,103,4.0,5.0,58,0.00,,,0.00,0,Wunderground v.1.15,2013-02-09 06:19:00,
2013-02-09 00:22:00,50.6,36.4,30.10,East,101,4.0,5.0,58,0.00,,,0.00,0,Wunderground v.1.15,2013-02-09 06:22:00,
2013-02-09 00:24:00,50.6,36.8,30.11,ESE,103,4.0,6.0,59,0.00,,,0.00,0,Wunderground v.1.15,2013-02-09 06:24:00,
2013-02-09 00:28:00,50.6,37.2,30.11,ESE,105,4.0,6.0,60,0.00,,,0.00,0,Wunderground v.1.15,2013-02-09 06:28:00,
2013-02-09 00:29:00,50.6,37.2,30.10,ESE,104,4.0,6.0,60,0.00,,,0.00,0,Wunderground v.1.15,2013-02-09 06:29:00,
2013-02-09 00:32:00,50.6,37.2,30.10,ESE,109,4.0,5.0,60,0.00,,,0.00,0,Wunderground v.1.15,2013-02-09 06:32:00,
2013-02-09 00:34:00,50.6,37.6,30.10,ESE,105,4.0,5.0,61,0.00,,,0.00,0,Wunderground v.1.15,2013-02-09 06:34:00,
2013-02-09 00:35:00,50.6,37.6,30.10,ESE,117,4.0,5.0,61,0.00,,,0.00,0,Wunderground v.1.15,2013-02-09 06:35:00,
2013-02-09 00:37:00,50.6,37.6,30.10,ESE,107,4.0,5.0,61,0.00,,,0.00,0,Wunderground v.1.15,2013-02-09 06:37:00,
2013-02-09 00:39:00,50.7,37.7,30.10,ESE,119,4.0,7.0,61,0.00,,,0.00,0,Wunderground v.1.15,2013-02-09 06:39:00,
2013-02-09 00:42:00,50.8,37.8,30.10,ESE,107,5.0,5.0,61,0.00,,,0.00,0,Wunderground v.1.15,2013-02-09 06:42:00,
2013-02-09 00:47:00,50.8,38.2,30.10,ESE,102,4.0,5.0,62,0.00,,,0.00,0,Wunderground v.1.15,2013-02-09 06:47:00,
2013-02-09 00:48:00,50.8,38.7,30.10,ESE,103,5.0,7.0,63,0.00,,,0.00,0,Wunderground v.1.15,2013-02-09 06:48:00,
2013-02-09 00:51:00,50.9,38.7,30.10,ESE,109,4.0,7.0,63,0.00,,,0.00,0,Wunderground v.1.15,2013-02-09 06:51:00,
2013-02-09 00:53:00,50.9,38.7,30.09,ESE,106,5.0,7.0,63,0.00,,,0.00,0,Wunderground v.1.15,2013-02-09 06:53:00,
2013-02-09 00:54:00,51.0,38.8,30.09,ESE,113,5.0,7.0,63,0.00,,,0.00,0,Wunderground v.1.15,2013-02-09 06:54:00,
2013-02-09 00:57:00,51.0,39.2,30.10,SE,125,5.0,7.0,64,0.00,,,0.00,0,Wunderground v.1.15,2013-02-09 06:57:00,
2013-02-09 01:01:00,51.0,39.2,30.10,ESE,111,5.0,5.0,64,0.00,,,0.00,0,Wunderground v.1.15,2013-02-09 07:01:00,
2013-02-09 01:03:00,51.1,39.7,30.10,SE,127,5.0,7.0,65,0.00,,,0.00,0,Wunderground v.1.15,2013-02-09 07:03:00,
2013-02-09 01:05:00,51.0,39.6,30.10,SE,145,5.0,7.0,65,0.00,,,0.00,0,Wunderground v.1.15,2013-02-09 07:05:00,
2013-02-09 01:07:00,51.1,40.1,30.10,ESE,110,5.0,7.0,66,0.00,,,0.00,0,Wunderground v.1.15,2013-02-09 07:07:00,
2013-02-09 01:08:00,51.1,40.1,30.10,ESE,104,5.0,7.0,66,0.00,,,0.00,0,Wunderground v.1.15,2013-02-09 07:08:00,
2013-02-09 01:10:00,51.2,40.2,30.10,SE,124,6.0,7.0,66,0.00,,,0.00,0,Wunderground v.1.15,2013-02-09 07:10:00,
2013-02-09 01:13:00,51.1,40.1,30.10,SE,125,6.0,7.0,66,0.00,,,0.00,0,Wunderground v.1.15,2013-02-09 07:13:00,
2013-02-09 01:18:00,51.0,40.0,30.09,ESE,111,6.0,8.0,66,0.00,,,0.00,0,Wunderground v.1.15,2013-02-09 07:18:00,
2013-02-09 01:19:00,51.0,40.4,30.10,ESE,119,6.0,8.0,67,0.00,,,0.00,0,Wunderground v.1.15,2013-02-09 07:19:00,
2013-02-09 01:20:00,50.9,40.3,30.10,SE,130,6.0,8.0,67,0.00,,,0.00,0,Wunderground v.1.15,2013-02-09 07:20:00,
2013-02-09 01:23:00,50.9,40.3,30.10,ESE,117,6.0,9.0,67,0.00,,,0.00,0,Wunderground v.1.15,2013-02-09 07:23:00,
2013-02-09 01:26:00,50.8,40.6,30.11,SE,126,6.0,9.0,68,0.00,,,0.00,0,Wunderground v.1.15,2013-02-09 07:26:00,
2013-02-09 01:28:00,50.8,40.6,30.11,ESE,111,6.0,9.0,68,0.00,,,0.00,0,Wunderground v.1.15,2013-02-09 07:28:00,
2013-02-09 01:29:00,50.8,40.6,30.11,SE,134,6.0,9.0,68,0.00,,,0.00,0,Wunderground v.1.15,2013-02-09 07:29:00,
2013-02-09 01:31:00,50.9,40.7,30.10,SE,131,6.0,6.0,68,0.00,,,0.00,0,Wunderground v.1.15,2013-02-09 07:31:00,
2013-02-09 01:34:00,50.8,40.6,30.10,SE,131,6.0,7.0,68,0.00,,,0.00,0,Wunderground v.1.15,2013-02-09 07:34:00,
2013-02-09 01:37:00,50.9,41.1,30.10,SE,125,6.0,8.0,69,0.00,,,0.00,0,Wunderground v.1.15,2013-02-09 07:37:00,
2013-02-09 01:38:00,50.9,41.1,30.10,SE,133,7.0,8.0,69,0.00,,,0.00,0,Wunderground v.1.15,2013-02-09 07:38:00,
2013-02-09 01:42:00,50.9,41.1,30.10,ESE,119,7.0,9.0,69,0.00,,,0.00,0,Wunderground v.1.15,2013-02-09 07:42:00,
2013-02-09 01:47:00,50.9,41.5,30.10,SE,126,6.0,9.0,70,0.00,,,0.00,0,Wunderground v.1.15,2013-02-09 07:47:00,
2013-02-09 01:48:00,50.9,41.5,30.10,SSE,148,6.0,9.0,70,0.00,,,0.00,0,Wunderground v.1.15,2013-02-09 07:48:00,
2013-02-09 01:51:00,50.9,41.5,30.10,ESE,111,6.0,9.0,70,0.00,,,0.00,0,Wunderground v.1.15,2013-02-09 07:51:00,
2013-02-09 01:52:00,50.9,41.5,30.10,ESE,119,6.0,6.0,70,0.00,,,0.00,0,Wunderground v.1.15,2013-02-09 07:52:00,
2013-02-09 01:54:00,50.9,41.5,30.10,ESE,119,6.0,6.0,70,0.00,,,0.00,0,Wunderground v.1.15,2013-02-09 07:54:00,
2013-02-09 01:57:00,50.8,41.4,30.10,ESE,121,6.0,7.0,70,0.00,,,0.00,0,Wunderground v.1.15,2013-02-09 07:57:00,
2013-02-09 01:59:00,50.8,41.4,30.10,ESE,122,6.0,7.0,70,0.00,,,0.00,0,Wunderground v.1.15,2013-02-09 07:59:00,
2013-02-09 02:01:00,50.8,41.4,30.10,SE,133,5.0,5.0,70,0.00,,,0.00,0,Wunderground v.1.15,2013-02-09 08:01:00,
2013-02-09 02:02:00,50.8,41.4,30.10,ESE,119,5.0,5.0,70,0.00,,,0.00,0,Wunderground v.1.15,2013-02-09 08:02:00,
2013-02-09 02:06:00,50.8,41.4,30.10,ESE,117,5.0,5.0,70,0.00,,,0.00,0,Wunderground v.1.15,2013-02-09 08:06:00,
2013-02-09 02:07:00,50.7,41.3,30.10,SE,132,5.0,8.0,70,0.00,,,0.00,0,Wunderground v.1.15,2013-02-09 08:07:00,
2013-02-09 02:08:00,50.7,41.6,30.10,ESE,120,5.0,8.0,71,0.00,,,0.00,0,Wunderground v.1.15,2013-02-09 08:08:00,
2013-02-09 02:12:00,50.7,41.6,30.10,SE,132,5.0,5.0,71,0.00,,,0.00,0,Wunderground v.1.15,2013-02-09 08:12:00,
2013-02-09 02:15:00,50.7,41.6,30.10,SE,128,5.0,6.0,71,0.00,,,0.00,0,Wunderground v.1.15,2013-02-09 08:15:00,
2013-02-09 02:17:00,50.7,41.6,30.09,ESE,117,6.0,9.0,71,0.00,,,0.00,0,Wunderground v.1.15,2013-02-09 08:17:00,
2013-02-09 02:22:00,50.7,42.0,30.09,SE,125,6.0,7.0,72,0.00,,,0.00,0,Wunderground v.1.15,2013-02-09 08:22:00,
2013-02-09 02:24:00,50.6,41.9,30.09,ESE,109,7.0,9.0,72,0.00,,,0.00,0,Wunderground v.1.15,2013-02-09 08:24:00,
2013-02-09 02:25:00,50.6,41.9,30.09,SE,126,7.0,9.0,72,0.00,,,0.00,0,Wunderground v.1.15,2013-02-09 08:25:00,
2013-02-09 02:26:00,50.6,41.9,30.09,ESE,121,6.0,9.0,72,0.00,,,0.00,0,Wunderground v.1.15,2013-02-09 08:26:00,
2013-02-09 02:29:00,50.6,41.9,30.09,ESE,111,6.0,9.0,72,0.00,,,0.00,0,Wunderground v.1.15,2013-02-09 08:29:00,
2013-02-09 02:31:00,50.6,41.9,30.09,ESE,107,6.0,6.0,72,0.00,,,0.00,0,Wunderground v.1.15,2013-02-09 08:31:00,
2013-02-09 02:32:00,50.6,42.3,30.09,SE,135,6.0,6.0,73,0.00,,,0.00,0,Wunderground v.1.15,2013-02-09 08:32:00,
2013-02-09 02:34:00,50.6,42.3,30.08,SE,128,6.0,7.0,73,0.00,,,0.00,0,Wunderground v.1.15,2013-02-09 08:34:00,
2013-02-09 02:36:00,50.6,42.3,30.08,ESE,109,6.0,11.0,73,0.00,,,0.00,0,Wunderground v.1.15,2013-02-09 08:36:00,
2013-02-09 02:37:00,50.6,42.3,30.08,ESE,121,6.0,11.0,73,0.00,,,0.00,0,Wunderground v.1.15,2013-02-09 08:37:00,
2013-02-09 02:39:00,50.6,42.3,30.08,ESE,116,6.0,11.0,73,0.00,,,0.00,0,Wunderground v.1.15,2013-02-09 08:39:00,
2013-02-09 02:42:00,50.6,42.6,30.07,ESE,117,7.0,15.0,74,0.00,,,0.00,0,Wunderground v.1.15,2013-02-09 08:42:00,
2013-02-09 02:43:00,50.6,42.6,30.07,SE,134,8.0,15.0,74,0.00,,,0.00,0,Wunderground v.1.15,2013-02-09 08:43:00,
2013-02-09 02:46:00,50.6,42.6,30.07,ESE,103,9.0,15.0,74,0.00,,,0.00,0,Wunderground v.1.15,2013-02-09 08:46:00,
2013-02-09 02:48:00,50.7,42.7,30.07,ESE,120,9.0,15.0,74,0.00,,,0.00,0,Wunderground v.1.15,2013-02-09 08:48:00,
2013-02-09 02:49:00,50.8,42.8,30.07,East,79,9.0,15.0,74,0.00,,,0.00,0,Wunderground v.1.15,2013-02-09 08:49:00,
2013-02-09 02:51:00,50.8,42.8,30.07,ESE,121,9.0,12.0,74,0.00,,,0.00,0,Wunderground v.1.15,2013-02-09 08:51:00,
2013-02-09 02:53:00,50.8,43.2,30.07,ESE,104,9.0,12.0,75,0.00,,,0.00,0,Wunderground v.1.15,2013-02-09 08:53:00,
2013-02-09 02:55:00,50.7,43.1,30.07,ESE,107,9.0,12.0,75,0.00,,,0.00,0,Wunderground v.1.15,2013-02-09 08:55:00,
2013-02-09 02:57:00,50.7,43.1,30.07,ESE,119,9.0,12.0,75,0.00,,,0.00,0,Wunderground v.1.15,2013-02-09 08:57:00,
2013-02-09 02:58:00,50.7,43.1,30.08,ESE,112,9.0,12.0,75,0.00,,,0.00,0,Wunderground v.1.15,2013-02-09 08:58:00,
2013-02-09 03:01:00,50.8,43.5,30.08,ESE,115,9.0,12.0,76,0.00,,,0.00,0,Wunderground v.1.15,2013-02-09 09:01:00,
2013-02-09 03:04:00,50.8,43.2,30.08,East,92,9.0,12.0,75,0.00,,,0.00,0,Wunderground v.1.15,2013-02-09 09:04:00,
2013-02-09 03:07:00,50.6,43.0,30.08,ESE,107,8.0,12.0,75,0.00,,,0.00,0,Wunderground v.1.15,2013-02-09 09:07:00,
2013-02-09 03:09:00,50.5,42.9,30.08,ESE,112,8.0,12.0,75,0.00,,,0.00,0,Wunderground v.1.15,2013-02-09 09:09:00,
2013-02-09 03:12:00,50.2,42.6,30.08,ESE,111,7.0,8.0,75,0.00,,,0.00,0,Wunderground v.1.15,2013-02-09 09:12:00,
2013-02-09 03:13:00,50.1,42.5,30.08,ESE,103,7.0,8.0,75,0.00,,,0.00,0,Wunderground v.1.15,2013-02-09 09:13:00,
2013-02-09 03:14:00,50.0,42.7,30.08,East,100,7.0,8.0,76,0.00,,,0.00,0,Wunderground v.1.15,2013-02-09 09:14:00,
2013-02-09 03:18:00,49.9,42.6,30.08,ESE,116,7.0,10.0,76,0.00,,,0.00,0,Wunderground v.1.15,2013-02-09 09:18:00,
2013-02-09 03:19:00,49.8,42.5,30.08,SE,128,7.0,10.0,76,0.00,,,0.00,0,Wunderground v.1.15,2013-02-09 09:19:00,
2013-02-09 03:23:00,49.7,42.8,30.08,ESE,105,8.0,11.0,77,0.00,,,0.00,0,Wunderground v.1.15,2013-02-09 09:23:00,
2013-02-09 03:27:00,49.6,42.7,30.07,ESE,107,9.0,11.0,77,0.00,,,0.00,0,Wunderground v.1.15,2013-02-09 09:27:00,
2013-02-09 03:28:00,49.5,42.6,30.08,ESE,117,9.0,11.0,77,0.00,,,0.00,0,Wunderground v.1.15,2013-02-09 09:28:00,
2013-02-09 03:29:00,49.5,42.6,30.08,SE,132,9.0,11.0,77,0.00,,,0.00,0,Wunderground v.1.15,2013-02-09 09:29:00,
2013-02-09 03:30:00,49.5,42.6,30.08,ESE,114,8.0,11.0,77,0.00,,,0.00,0,Wunderground v.1.15,2013-02-09 09:30:00,
2013-02-09 03:36:00,49.4,42.5,30.09,ESE,115,6.0,8.0,77,0.00,,,0.00,0,Wunderground v.1.15,2013-02-09 09:36:00,
2013-02-09 03:37:00,49.4,42.5,30.09,SE,143,6.0,8.0,77,0.00,,,0.00,0,Wunderground v.1.15,2013-02-09 09:37:00,
2013-02-09 03:40:00,49.3,42.7,30.09,ESE,117,7.0,8.0,78,0.00,,,0.00,0,Wunderground v.1.15,2013-02-09 09:40:00,
2013-02-09 03:41:00,49.3,42.7,30.09,ESE,116,6.0,6.0,78,0.00,,,0.00,0,Wunderground v.1.15,2013-02-09 09:41:00,
2013-02-09 03:42:00,49.3,42.7,30.09,ESE,107,6.0,6.0,78,0.00,,,0.00,0,Wunderground v.1.15,2013-02-09 09:42:00,
2013-02-09 03:46:00,49.2,42.6,30.09,ESE,111,6.0,8.0,78,0.00,,,0.00,0,Wunderground v.1.15,2013-02-09 09:46:00,
2013-02-09 03:49:00,49.2,42.6,30.09,ESE,115,6.0,9.0,78,0.00,,,0.00,0,Wunderground v.1.15,2013-02-09 09:49:00,
2013-02-09 03:50:00,49.1,42.5,30.09,SE,138,6.0,9.0,78,0.00,,,0.00,0,Wunderground v.1.15,2013-02-09 09:50:00,
2013-02-09 03:52:00,49.1,42.5,30.09,East,92,6.0,7.0,78,0.00,,,0.00,0,Wunderground v.1.15,2013-02-09 09:52:00,
2013-02-09 03:54:00,49.1,42.5,30.09,ESE,102,6.0,7.0,78,0.00,,,0.00,0,Wunderground v.1.15,2013-02-09 09:54:00,
2013-02-09 03:55:00,49.1,42.9,30.09,SE,127,6.0,7.0,79,0.00,,,0.00,0,Wunderground v.1.15,2013-02-09 09:55:00,
2013-02-09 03:59:00,49.1,42.9,30.09,ESE,114,6.0,8.0,79,0.00,,,0.00,0,Wunderground v.1.15,2013-02-09 09:59:00,
2013-02-09 04:02:00,49.0,42.8,30.10,SE,126,6.0,8.0,79,0.00,,,0.00,0,Wunderground v.1.15,2013-02-09 10:02:00,
2013-02-09 04:03:00,49.0,42.8,30.10,ESE,120,6.0,8.0,79,0.00,,,0.00,0,Wunderground v.1.15,2013-02-09 10:03:00,
2013-02-09 04:06:00,49.0,42.8,30.10,ESE,110,6.0,8.0,79,0.00,,,0.00,0,Wunderground v.1.15,2013-02-09 10:06:00,
2013-02-09 04:08:00,48.9,42.7,30.09,East,101,5.0,8.0,79,0.00,,,0.00,0,Wunderground v.1.15,2013-02-09 10:08:00,
2013-02-09 04:10:00,48.9,42.7,30.09,ESE,113,5.0,8.0,79,0.00,,,0.00,0,Wunderground v.1.15,2013-02-09 10:10:00,
2013-02-09 04:12:00,48.8,42.9,30.09,East,98,5.0,7.0,80,0.00,,,0.00,0,Wunderground v.1.15,2013-02-09 10:12:00,
2013-02-09 04:14:00,48.8,42.6,30.10,ESE,114,6.0,7.0,79,0.00,,,0.00,0,Wunderground v.1.15,2013-02-09 10:14:00,
2013-02-09 04:15:00,48.8,42.9,30.10,ESE,120,6.0,8.0,80,0.00,,,0.00,0,Wunderground v.1.15,2013-02-09 10:15:00,
2013-02-09 04:17:00,48.8,42.9,30.10,SE,131,6.0,8.0,80,0.00,,,0.00,0,Wunderground v.1.15,2013-02-09 10:17:00,
2013-02-09 04:18:00,48.8,42.9,30.10,SE,124,6.0,8.0,80,0.00,,,0.00,0,Wunderground v.1.15,2013-02-09 10:18:00,
2013-02-09 04:20:00,48.9,43.0,30.10,ESE,123,6.0,8.0,80,0.00,,,0.00,0,Wunderground v.1.15,2013-02-09 10:20:00,
2013-02-09 04:23:00,48.9,43.0,30.10,ESE,115,6.0,6.0,80,0.00,,,0.00,0,Wunderground v.1.15,2013-02-09 10:23:00,
2013-02-09 04:25:00,48.9,43.0,30.10,ESE,105,6.0,6.0,80,0.00,,,0.00,0,Wunderground v.1.15,2013-02-09 10:25:00,
2013-02-09 04:26:00,48.8,42.9,30.10,ESE,113,6.0,8.0,80,0.00,,,0.00,0,Wunderground v.1.15,2013-02-09 10:26:00,
2013-02-09 04:27:00,48.8,42.9,30.10,SE,126,6.0,8.0,80,0.00,,,0.00,0,Wunderground v.1.15,2013-02-09 10:27:00,
2013-02-09 04:31:00,48.8,42.9,30.09,ESE,120,6.0,7.0,80,0.00,,,0.00,0,Wunderground v.1.15,2013-02-09 10:31:00,
2013-02-09 04:32:00,48.8,42.9,30.09,ESE,119,6.0,7.0,80,0.00,,,0.00,0,Wunderground v.1.15,2013-02-09 10:32:00,
2013-02-09 04:37:00,48.8,42.9,30.09,SSE,148,7.0,9.0,80,0.00,,,0.00,0,Wunderground v.1.15,2013-02-09 10:37:00,
2013-02-09 04:39:00,48.8,43.2,30.10,SE,132,6.0,9.0,81,0.00,,,0.00,0,Wunderground v.1.15,2013-02-09 10:39:00,
2013-02-09 04:42:00,48.8,43.2,30.10,East,98,6.0,7.0,81,0.00,,,0.00,0,Wunderground v.1.15,2013-02-09 10:42:00,
2013-02-09 04:44:00,48.8,43.2,30.10,ESE,105,6.0,7.0,81,0.00,,,0.00,0,Wunderground v.1.15,2013-02-09 10:44:00,
2013-02-09 04:45:00,48.9,43.3,30.10,ESE,113,6.0,7.0,81,0.00,,,0.00,0,Wunderground v.1.15,2013-02-09 10:45:00,
2013-02-09 04:48:00,48.8,43.2,30.10,ESE,107,6.0,8.0,81,0.00,,,0.00,0,Wunderground v.1.15,2013-02-09 10:48:00,
2013-02-09 04:49:00,48.8,43.2,30.09,ESE,123,6.0,8.0,81,0.00,,,0.00,0,Wunderground v.1.15,2013-02-09 10:49:00,
2013-02-09 04:50:00,48.8,43.2,30.09,ESE,119,6.0,8.0,81,0.00,,,0.00,0,Wunderground v.1.15,2013-02-09 10:50:00,
2013-02-09 04:56:00,48.8,43.2,30.08,ESE,103,6.0,8.0,81,0.00,,,0.00,0,Wunderground v.1.15,2013-02-09 10:56:00,
2013-02-09 04:58:00,48.8,43.5,30.08,ESE,104,7.0,8.0,82,0.00,,,0.00,0,Wunderground v.1.15,2013-02-09 10:58:00,
2013-02-09 05:02:00,48.8,43.2,30.08,ESE,111,8.0,10.0,81,0.00,,,0.00,0,Wunderground v.1.15,2013-02-09 11:02:00,
2013-02-09 05:03:00,48.8,43.5,30.08,ESE,114,8.0,10.0,82,0.00,,,0.00,0,Wunderground v.1.15,2013-02-09 11:03:00,
2013-02-09 05:04:00,48.8,43.5,30.08,ESE,117,8.0,14.0,82,0.00,,,0.00,0,Wunderground v.1.15,2013-02-09 11:04:00,
2013-02-09 05:10:00,48.8,43.5,30.08,East,95,10.0,14.0,82,0.00,,,0.00,0,Wunderground v.1.15,2013-02-09 11:10:00,
2013-02-09 05:11:00,48.8,43.5,30.08,ESE,104,9.0,9.0,82,0.00,,,0.00,0,Wunderground v.1.15,2013-02-09 11:11:00,
2013-02-09 05:12:00,48.7,43.5,30.08,ESE,109,9.0,9.0,82,0.00,,,0.00,0,Wunderground v.1.15,2013-02-09 11:12:00,
2013-02-09 05:17:00,48.8,43.5,30.08,East,91,8.0,9.0,82,0.00,,,0.00,0,Wunderground v.1.15,2013-02-09 11:17:00,
2013-02-09 05:18:00,48.8,43.5,30.08,ESE,109,8.0,9.0,82,0.00,,,0.00,0,Wunderground v.1.15,2013-02-09 11:18:00,
2013-02-09 05:19:00,48.8,43.5,30.09,East,101,8.0,9.0,82,0.00,,,0.00,0,Wunderground v.1.15,2013-02-09 11:19:00,
2013-02-09 05:24:00,48.8,43.5,30.09,East,81,7.0,15.0,82,0.00,,,0.00,0,Wunderground v.1.15,2013-02-09 11:24:00,
2013-02-09 05:25:00,48.8,43.5,30.09,East,98,8.0,15.0,82,0.00,,,0.00,0,Wunderground v.1.15,2013-02-09 11:25:00,
2013-02-09 05:30:00,48.9,43.6,30.08,ESE,122,8.0,15.0,82,0.00,,,0.00,0,Wunderground v.1.15,2013-02-09 11:30:00,
2013-02-09 05:34:00,49.0,43.7,30.08,ESE,113,9.0,13.0,82,0.00,,,0.00,0,Wunderground v.1.15,2013-02-09 11:34:00,
2013-02-09 05:35:00,49.0,43.7,30.08,ESE,107,9.0,13.0,82,0.00,,,0.00,0,Wunderground v.1.15,2013-02-09 11:35:00,
2013-02-09 05:37:00,49.1,43.8,30.09,ESE,112,9.0,13.0,82,0.00,,,0.00,0,Wunderground v.1.15,2013-02-09 11:37:00,
2013-02-09 05:39:00,49.0,43.4,30.09,SSE,161,9.0,13.0,81,0.00,,,0.00,0,Wunderground v.1.15,2013-02-09 11:39:00,
2013-02-09 05:42:00,49.0,43.4,30.09,ESE,120,9.0,10.0,81,0.00,,,0.00,0,Wunderground v.1.15,2013-02-09 11:42:00,
2013-02-09 05:45:00,49.0,43.4,30.08,ESE,122,9.0,10.0,81,0.00,,,0.00,0,Wunderground v.1.15,2013-02-09 11:45:00,
2013-02-09 05:47:00,48.9,43.3,30.08,ESE,104,9.0,13.0,81,0.00,,,0.00,0,Wunderground v.1.15,2013-02-09 11:47:00,
2013-02-09 05:48:00,48.9,43.3,30.09,SE,126,9.0,13.0,81,0.00,,,0.00,0,Wunderground v.1.15,2013-02-09 11:48:00,
2013-02-09 05:52:00,48.9,43.3,30.09,SE,137,9.0,12.0,81,0.00,,,0.00,0,Wunderground v.1.15,2013-02-09 11:52:00,
2013-02-09 05:53:00,48.9,43.0,30.09,ESE,111,9.0,14.0,80,0.00,,,0.00,0,Wunderground v.1.15,2013-02-09 11:53:00,
2013-02-09 05:54:00,48.9,43.0,30.09,ESE,123,9.0,14.0,80,0.00,,,0.00,0,Wunderground v.1.15,2013-02-09 11:54:00,
2013-02-09 05:58:00,48.9,43.0,30.10,ESE,117,8.0,14.0,80,0.00,,,0.00,0,Wunderground v.1.15,2013-02-09 11:58:00,
2013-02-09 05:59:00,48.9,43.0,30.10,SSE,153,8.0,14.0,80,0.00,,,0.00,0,Wunderground v.1.15,2013-02-09 11:59:00,
2013-02-09 06:04:00,49.0,43.1,30.09,SE,128,8.0,11.0,80,0.00,,,0.00,0,Wunderground v.1.15,2013-02-09 12:04:00,
2013-02-09 06:06:00,48.9,43.0,30.09,SSE,155,9.0,11.0,80,0.00,,,0.00,0,Wunderground v.1.15,2013-02-09 12:06:00,
2013-02-09 06:07:00,48.9,43.0,30.10,East,90,9.0,13.0,80,0.00,,,0.00,0,Wunderground v.1.15,2013-02-09 12:07:00,
2013-02-09 06:09:00,48.9,43.0,30.09,SE,138,10.0,14.0,80,0.00,,,0.00,0,Wunderground v.1.15,2013-02-09 12:09:00,
2013-02-09 06:11:00,48.8,43.2,30.09,ESE,115,11.0,14.0,81,0.00,,,0.00,0,Wunderground v.1.15,2013-02-09 12:11:00,
2013-02-09 06:12:00,48.8,43.2,30.09,East,97,11.0,14.0,81,0.00,,,0.00,0,Wunderground v.1.15,2013-02-09 12:12:00,
2013-02-09 06:15:00,48.7,43.1,30.08,SE,128,11.0,14.0,81,0.00,,,0.00,0,Wunderground v.1.15,2013-02-09 12:15:00,
2013-02-09 06:16:00,48.7,43.1,30.08,ESE,123,11.0,14.0,81,0.00,,,0.00,0,Wunderground v.1.15,2013-02-09 12:16:00,
2013-02-09 06:18:00,48.7,43.1,30.08,ESE,111,12.0,14.0,81,0.00,,,0.00,0,Wunderground v.1.15,2013-02-09 12:18:00,
2013-02-09 06:21:00,48.6,43.0,30.08,SE,134,11.0,11.0,81,0.00,,,0.00,0,Wunderground v.1.15,2013-02-09 12:21:00,
2013-02-09 06:24:00,48.6,43.4,30.08,ESE,110,11.0,13.0,82,0.00,,,0.00,0,Wunderground v.1.15,2013-02-09 12:24:00,
2013-02-09 06:25:00,48.5,43.3,30.08,ESE,104,11.0,13.0,82,0.00,,,0.00,0,Wunderground v.1.15,2013-02-09 12:25:00,
2013-02-09 06:28:00,48.5,43.3,30.07,ESE,121,10.0,13.0,82,0.00,,,0.00,0,Wunderground v.1.15,2013-02-09 12:28:00,
2013-02-09 06:30:00,48.4,43.2,30.06,East,100,11.0,14.0,82,0.00,,,0.00,0,Wunderground v.1.15,2013-02-09 12:30:00,
2013-02-09 06:33:00,48.2,43.0,30.06,East,94,12.0,15.0,82,0.00,,,0.00,0,Wunderground v.1.15,2013-02-09 12:33:00,
2013-02-09 06:36:00,48.2,43.0,30.07,East,84,12.0,15.0,82,0.00,,,0.00,0,Wunderground v.1.15,2013-02-09 12:36:00,
2013-02-09 06:38:00,48.2,43.0,30.08,ESE,115,12.0,15.0,82,0.00,,,0.00,0,Wunderground v.1.15,2013-02-09 12:38:00,
2013-02-09 06:40:00,48.1,42.9,30.08,SE,130,11.0,15.0,82,0.00,,,0.00,0,Wunderground v.1.15,2013-02-09 12:40:00,
2013-02-09 06:41:00,48.1,42.9,30.08,SE,125,11.0,11.0,82,0.00,,,0.00,0,Wunderground v.1.15,2013-02-09 12:41:00,
2013-02-09 06:45:00,48.1,42.9,30.08,ESE,107,9.0,11.0,82,0.00,,,0.00,0,Wunderground v.1.15,2013-02-09 12:45:00,
2013-02-09 06:47:00,48.1,42.9,30.08,SE,138,9.0,11.0,82,0.00,,,0.00,0,Wunderground v.1.15,2013-02-09 12:47:00,
2013-02-09 06:49:00,48.0,42.4,30.08,ESE,102,9.0,17.0,81,0.00,,,0.00,0,Wunderground v.1.15,2013-02-09 12:49:00,
2013-02-09 06:52:00,47.9,42.3,30.08,ESE,119,10.0,16.0,81,0.00,,,0.00,0,Wunderground v.1.15,2013-02-09 12:52:00,
2013-02-09 06:53:00,47.9,42.3,30.08,SE,126,11.0,16.0,81,0.00,,,0.00,0,Wunderground v.1.15,2013-02-09 12:53:00,
2013-02-09 06:58:00,47.8,42.3,30.08,SE,128,12.0,16.0,81,0.00,,,0.00,0,Wunderground v.1.15,2013-02-09 12:58:00,
2013-02-09 06:59:00,47.8,42.3,30.08,ESE,114,12.0,16.0,81,0.00,,,0.00,0,Wunderground v.1.15,2013-02-09 12:59:00,
2013-02-09 07:02:00,47.7,42.2,30.08,SE,125,12.0,14.0,81,0.00,,,0.00,0,Wunderground v.1.15,2013-02-09 13:02:00,
2013-02-09 07:03:00,47.7,42.2,30.08,ESE,114,12.0,14.0,81,0.00,,,0.00,0,Wunderground v.1.15,2013-02-09 13:03:00,
2013-02-09 07:04:00,47.8,42.3,30.08,ESE,123,11.0,14.0,81,0.00,,,0.00,0,Wunderground v.1.15,2013-02-09 13:04:00,
2013-02-09 07:09:00,47.6,42.1,30.08,ESE,115,12.0,15.0,81,0.00,,,0.00,0,Wunderground v.1.15,2013-02-09 13:09:00,
2013-02-09 07:10:00,47.6,42.1,30.08,South,171,12.0,12.0,81,0.00,,,0.00,0,Wunderground v.1.15,2013-02-09 13:10:00,
2013-02-09 07:11:00,47.6,42.1,30.08,East,100,12.0,13.0,81,0.00,,,0.00,0,Wunderground v.1.15,2013-02-09 13:11:00,
2013-02-09 07:14:00,47.5,42.0,30.08,ESE,107,12.0,14.0,81,0.00,,,0.00,0,Wunderground v.1.15,2013-02-09 13:14:00,
2013-02-09 07:18:00,47.4,41.9,30.08,SE,126,11.0,14.0,81,0.00,,,0.00,0,Wunderground v.1.15,2013-02-09 13:18:00,
2013-02-09 07:19:00,47.4,41.9,30.08,East,94,10.0,14.0,81,0.00,,,0.00,0,Wunderground v.1.15,2013-02-09 13:19:00,
2013-02-09 07:22:00,47.3,41.8,30.08,ESE,113,10.0,13.0,81,0.00,,,0.00,0,Wunderground v.1.15,2013-02-09 13:22:00,
2013-02-09 07:24:00,47.3,41.8,30.08,East,95,10.0,13.0,81,0.00,,,0.00,5,Wunderground v.1.15,2013-02-09 13:24:00,
2013-02-09 07:26:00,47.2,41.7,30.08,ESE,111,9.0,13.0,81,0.00,,,0.00,5,Wunderground v.1.15,2013-02-09 13:26:00,
2013-02-09 07:30:00,47.1,41.6,30.08,ESE,105,8.0,9.0,81,0.00,,,0.00,11,Wunderground v.1.15,2013-02-09 13:30:00,
2013-02-09 07:32:00,47.1,41.6,30.08,ESE,114,8.0,9.0,81,0.00,,,0.00,12,Wunderground v.1.15,2013-02-09 13:32:00,
2013-02-09 07:33:00,47.1,41.6,30.08,ESE,102,7.0,9.0,81,0.00,,,0.00,12,Wunderground v.1.15,2013-02-09 13:33:00,
2013-02-09 07:34:00,47.0,41.5,30.08,East,99,7.0,9.0,81,0.00,,,0.00,12,Wunderground v.1.15,2013-02-09 13:34:00,
2013-02-09 07:36:00,47.0,41.5,30.08,ESE,114,7.0,10.0,81,0.00,,,0.00,14,Wunderground v.1.15,2013-02-09 13:36:00,
2013-02-09 07:38:00,47.0,41.5,30.09,ESE,113,7.0,10.0,81,0.00,,,0.00,16,Wunderground v.1.15,2013-02-09 13:38:00,
2013-02-09 07:39:00,47.0,41.5,30.09,ESE,111,7.0,10.0,81,0.00,,,0.00,16,Wunderground v.1.15,2013-02-09 13:39:00,
2013-02-09 07:41:00,46.9,41.4,30.08,ESE,111,8.0,11.0,81,0.00,,,0.00,18,Wunderground v.1.15,2013-02-09 13:41:00,
2013-02-09 07:44:00,46.9,41.4,30.08,SE,133,9.0,12.0,81,0.00,,,0.00,19,Wunderground v.1.15,2013-02-09 13:44:00,
2013-02-09 07:47:00,46.9,41.4,30.08,ESE,119,9.0,12.0,81,0.00,,,0.00,25,Wunderground v.1.15,2013-02-09 13:47:00,
2013-02-09 07:48:00,46.9,41.4,30.08,ESE,113,8.0,12.0,81,0.00,,,0.00,26,Wunderground v.1.15,2013-02-09 13:48:00,
2013-02-09 07:52:00,46.9,41.4,30.09,ESE,110,8.0,11.0,81,0.00,,,0.00,40,Wunderground v.1.15,2013-02-09 13:52:00,
2013-02-09 07:53:00,46.9,41.4,30.09,ESE,106,7.0,11.0,81,0.00,,,0.00,44,Wunderground v.1.15,2013-02-09 13:53:00,
2013-02-09 07:56:00,46.9,41.4,30.09,SE,133,7.0,13.0,81,0.00,,,0.00,51,Wunderground v.1.15,2013-02-09 13:56:00,
2013-02-09 08:01:00,46.8,41.3,30.08,SE,131,9.0,10.0,81,0.00,,,0.00,53,Wunderground v.1.15,2013-02-09 14:01:00,
2013-02-09 08:03:00,46.8,41.3,30.08,SE,132,9.0,12.0,81,0.00,,,0.00,53,Wunderground v.1.15,2013-02-09 14:03:00,
2013-02-09 08:06:00,46.8,41.3,30.08,ESE,106,10.0,13.0,81,0.00,,,0.00,56,Wunderground v.1.15,2013-02-09 14:06:00,
2013-02-09 08:11:00,46.8,41.3,30.08,SE,127,10.0,10.0,81,0.00,,,0.00,65,Wunderground v.1.15,2013-02-09 14:11:00,
2013-02-09 08:12:00,46.8,41.3,30.08,ESE,115,10.0,12.0,81,0.00,,,0.00,67,Wunderground v.1.15,2013-02-09 14:12:00,
2013-02-09 08:13:00,46.8,41.3,30.08,ESE,113,10.0,12.0,81,0.00,,,0.00,70,Wunderground v.1.15,2013-02-09 14:13:00,
2013-02-09 08:17:00,46.7,40.9,30.08,SE,132,11.0,17.0,80,0.00,,,0.00,76,Wunderground v.1.15,2013-02-09 14:17:00,
2013-02-09 08:18:00,46.7,40.9,30.08,SE,124,11.0,17.0,80,0.00,,,0.00,77,Wunderground v.1.15,2013-02-09 14:18:00,
2013-02-09 08:19:00,46.7,40.9,30.08,SE,128,12.0,17.0,80,0.00,,,0.00,76,Wunderground v.1.15,2013-02-09 14:19:00,
2013-02-09 08:22:00,46.7,40.9,30.08,ESE,115,12.0,12.0,80,0.00,,,0.00,74,Wunderground v.1.15,2013-02-09 14:22:00,
2013-02-09 08:24:00,46.7,40.9,30.08,SE,126,12.0,13.0,80,0.00,,,0.00,72,Wunderground v.1.15,2013-02-09 14:24:00,
2013-02-09 08:25:00,46.7,40.5,30.08,SE,138,12.0,13.0,79,0.00,,,0.00,72,Wunderground v.1.15,2013-02-09 14:25:00,
2013-02-09 08:29:00,46.8,40.6,30.08,ESE,108,10.0,13.0,79,0.00,,,0.00,74,Wunderground v.1.15,2013-02-09 14:29:00,
2013-02-09 08:30:00,46.8,40.6,30.08,ESE,123,10.0,13.0,79,0.00,,,0.00,74,Wunderground v.1.15,2013-02-09 14:30:00,
2013-02-09 08:31:00,46.8,40.6,30.08,ESE,111,10.0,10.0,79,0.00,,,0.00,74,Wunderground v.1.15,2013-02-09 14:31:00,
2013-02-09 08:33:00,46.8,40.6,30.08,SE,134,10.0,10.0,79,0.00,,,0.00,76,Wunderground v.1.15,2013-02-09 14:33:00,
2013-02-09 08:36:00,46.7,40.5,30.09,SE,141,10.0,12.0,79,0.00,,,0.00,74,Wunderground v.1.15,2013-02-09 14:36:00,
2013-02-09 08:39:00,46.8,40.6,30.08,ESE,112,9.0,12.0,79,0.00,,,0.00,63,Wunderground v.1.15,2013-02-09 14:39:00,
2013-02-09 08:41:00,46.8,40.6,30.08,East,94,9.0,9.0,79,0.00,,,0.00,58,Wunderground v.1.15,2013-02-09 14:41:00,
2013-02-09 08:42:00,46.7,40.5,30.08,East,101,10.0,10.0,79,0.00,,,0.00,54,Wunderground v.1.15,2013-02-09 14:42:00,
2013-02-09 08:43:00,46.7,40.5,30.08,SE,130,10.0,16.0,79,0.00,,,0.00,56,Wunderground v.1.15,2013-02-09 14:43:00,
2013-02-09 08:47:00,46.7,40.5,30.08,East,86,9.0,16.0,79,0.00,,,0.00,56,Wunderground v.1.15,2013-02-09 14:47:00,
2013-02-09 08:49:00,46.6,40.4,30.08,ESE,119,10.0,16.0,79,0.00,,,0.00,60,Wunderground v.1.15,2013-02-09 14:49:00,
2013-02-09 08:52:00,46.6,40.4,30.08,ESE,111,10.0,10.0,79,0.00,,,0.00,69,Wunderground v.1.15,2013-02-09 14:52:00,
2013-02-09 08:53:00,46.6,40.4,30.08,SE,134,10.0,11.0,79,0.00,,,0.00,76,Wunderground v.1.15,2013-02-09 14:53:00,
2013-02-09 08:54:00,46.5,40.7,30.08,ESE,105,10.0,11.0,80,0.00,,,0.00,81,Wunderground v.1.15,2013-02-09 14:54:00,
2013-02-09 09:01:00,46.5,40.3,30.07,East,98,12.0,12.0,79,0.00,,,0.00,118,Wunderground v.1.15,2013-02-09 15:01:00,
2013-02-09 09:02:00,46.5,40.7,30.07,ESE,104,12.0,12.0,80,0.00,,,0.00,120,Wunderground v.1.15,2013-02-09 15:02:00,
2013-02-09 09:05:00,46.6,40.8,30.07,ESE,119,12.0,18.0,80,0.00,,,0.00,134,Wunderground v.1.15,2013-02-09 15:05:00,
2013-02-09 09:08:00,46.6,40.8,30.07,SE,124,13.0,18.0,80,0.00,,,0.00,141,Wunderground v.1.15,2013-02-09 15:08:00,
2013-02-09 09:09:00,46.6,40.8,30.07,ESE,122,13.0,18.0,80,0.00,,,0.00,144,Wunderground v.1.15,2013-02-09 15:09:00,
2013-02-09 09:13:00,46.8,41.0,30.07,ESE,103,12.0,14.0,80,0.00,,,0.00,155,Wunderground v.1.15,2013-02-09 15:13:00,
2013-02-09 09:14:00,46.8,41.0,30.07,SE,128,12.0,14.0,80,0.00,,,0.00,148,Wunderground v.1.15,2013-02-09 15:14:00,
2013-02-09 09:17:00,46.9,40.7,30.07,ESE,117,11.0,14.0,79,0.00,,,0.00,151,Wunderground v.1.15,2013-02-09 15:17:00,
2013-02-09 09:19:00,47.0,41.1,30.07,SE,134,11.0,16.0,80,0.00,,,0.00,158,Wunderground v.1.15,2013-02-09 15:19:00,
2013-02-09 09:21:00,47.0,40.8,30.06,East,98,11.0,11.0,79,0.00,,,0.00,171,Wunderground v.1.15,2013-02-09 15:21:00,
2013-02-09 09:22:00,47.0,40.8,30.06,ESE,119,11.0,12.0,79,0.00,,,0.00,176,Wunderground v.1.15,2013-02-09 15:22:00,
2013-02-09 09:26:00,47.2,41.0,30.06,SSE,150,11.0,12.0,79,0.00,,,0.00,202,Wunderground v.1.15,2013-02-09 15:26:00,
2013-02-09 09:27:00,47.2,41.0,30.06,SSE,148,11.0,22.0,79,0.00,,,0.00,204,Wunderground v.1.15,2013-02-09 15:27:00,
2013-02-09 09:32:00,47.2,41.0,30.07,East,89,13.0,14.0,79,0.00,,,0.00,227,Wunderground v.1.15,2013-02-09 15:32:00,
2013-02-09 09:33:00,47.3,41.1,30.07,ESE,114,13.0,19.0,79,0.00,,,0.00,229,Wunderground v.1.15,2013-02-09 15:33:00,
2013-02-09 09:36:00,47.3,41.1,30.07,ESE,113,14.0,19.0,79,0.00,,,0.00,211,Wunderground v.1.15,2013-02-09 15:36:00,
2013-02-09 09:38:00,47.3,41.1,30.07,ESE,116,15.0,19.0,79,0.00,,,0.00,192,Wunderground v.1.15,2013-02-09 15:38:00,
2013-02-09 09:43:00,47.3,41.1,30.07,SE,125,15.0,18.0,79,0.00,,,0.00,181,Wunderground v.1.15,2013-02-09 15:43:00,
2013-02-09 09:44:00,47.3,41.1,30.07,SE,126,14.0,22.0,79,0.00,,,0.00,176,Wunderground v.1.15,2013-02-09 15:44:00,
2013-02-09 09:45:00,47.2,41.0,30.07,East,96,15.0,22.0,79,0.00,,,0.00,156,Wunderground v.1.15,2013-02-09 15:45:00,
2013-02-09 09:49:00,47.1,40.9,30.07,SE,127,15.0,22.0,79,0.00,,,0.00,163,Wunderground v.1.15,2013-02-09 15:49:00,
2013-02-09 09:51:00,47.2,41.0,30.07,SE,142,15.0,15.0,79,0.00,,,0.00,156,Wunderground v.1.15,2013-02-09 15:51:00,
2013-02-09 09:52:00,47.2,41.0,30.06,SE,135,15.0,19.0,79,0.00,,,0.00,167,Wunderground v.1.15,2013-02-09 15:52:00,
2013-02-09 09:57:00,47.3,41.1,30.06,East,101,14.0,23.0,79,0.00,,,0.00,186,Wunderground v.1.15,2013-02-09 15:57:00,
2013-02-09 09:58:00,47.3,41.1,30.07,ESE,111,14.0,23.0,79,0.00,,,0.00,178,Wunderground v.1.15,2013-02-09 15:58:00,
2013-02-09 10:02:00,47.3,41.1,30.07,SE,136,14.0,20.0,79,0.00,,,0.00,176,Wunderground v.1.15,2013-02-09 16:02:00,
2013-02-09 10:03:00,47.2,41.0,30.07,SE,136,14.0,20.0,79,0.00,,,0.00,178,Wunderground v.1.15,2013-02-09 16:03:00,
2013-02-09 10:06:00,47.3,41.1,30.07,East,101,13.0,20.0,79,0.00,,,0.00,134,Wunderground v.1.15,2013-02-09 16:06:00,
2013-02-09 10:09:00,47.2,41.0,30.07,SE,131,13.0,20.0,79,0.00,,,0.00,116,Wunderground v.1.15,2013-02-09 16:09:00,
2013-02-09 10:11:00,47.1,40.9,30.07,ESE,116,13.0,14.0,79,0.00,,,0.00,132,Wunderground v.1.15,2013-02-09 16:11:00,
2013-02-09 10:12:00,47.1,40.9,30.07,SE,129,13.0,14.0,79,0.00,,,0.00,135,Wunderground v.1.15,2013-02-09 16:12:00,
2013-02-09 10:14:00,47.2,41.3,30.07,SE,146,13.0,14.0,80,0.00,,,0.00,127,Wunderground v.1.15,2013-02-09 16:14:00,
2013-02-09 10:19:00,47.2,41.3,30.06,SE,142,12.0,17.0,80,0.00,,,0.00,111,Wunderground v.1.15,2013-02-09 16:19:00,
2013-02-09 10:23:00,47.1,41.2,30.07,SE,128,12.0,13.0,80,0.00,,,0.00,100,Wunderground v.1.15,2013-02-09 16:23:00,
2013-02-09 10:25:00,47.0,41.1,30.07,SE,126,13.0,13.0,80,0.00,,,0.00,104,Wunderground v.1.15,2013-02-09 16:25:00,
2013-02-09 10:28:00,47.2,41.3,30.07,SSE,153,12.0,13.0,80,0.00,,,0.00,97,Wunderground v.1.15,2013-02-09 16:28:00,
2013-02-09 10:30:00,47.2,41.3,30.07,ESE,117,12.0,13.0,80,0.00,,,0.00,104,Wunderground v.1.15,2013-02-09 16:30:00,
2013-02-09 10:33:00,47.3,41.4,30.07,SE,138,12.0,13.0,80,0.00,,,0.00,109,Wunderground v.1.15,2013-02-09 16:33:00,
2013-02-09 10:34:00,47.3,41.4,30.07,SE,134,12.0,13.0,80,0.00,,,0.00,107,Wunderground v.1.15,2013-02-09 16:34:00,
2013-02-09 10:37:00,47.2,41.3,30.07,ESE,120,12.0,18.0,80,0.00,,,0.00,111,Wunderground v.1.15,2013-02-09 16:37:00,
2013-02-09 10:39:00,47.2,41.3,30.07,ESE,113,12.0,18.0,80,0.00,,,0.00,116,Wunderground v.1.15,2013-02-09 16:39:00,
2013-02-09 10:41:00,47.1,41.2,30.07,SE,130,12.0,12.0,80,0.00,,,0.00,120,Wunderground v.1.15,2013-02-09 16:41:00,
2013-02-09 10:43:00,47.1,41.6,30.07,SE,146,13.0,17.0,81,0.00,,,0.00,107,Wunderground v.1.15,2013-02-09 16:43:00,
2013-02-09 10:44:00,47.1,41.6,30.08,SSE,162,13.0,17.0,81,0.00,,,0.00,105,Wunderground v.1.15,2013-02-09 16:44:00,
2013-02-09 10:48:00,47.3,41.4,30.07,SSE,147,12.0,17.0,80,0.00,,,0.00,113,Wunderground v.1.15,2013-02-09 16:48:00,
2013-02-09 10:49:00,47.3,41.8,30.07,SSE,157,11.0,17.0,81,0.00,,,0.00,104,Wunderground v.1.15,2013-02-09 16:49:00,
2013-02-09 10:52:00,47.4,41.5,30.06,SE,135,9.0,11.0,80,0.00,,,0.00,109,Wunderground v.1.15,2013-02-09 16:52:00,
2013-02-09 10:53:00,47.4,41.5,30.06,SE,140,9.0,11.0,80,0.00,,,0.00,113,Wunderground v.1.15,2013-02-09 16:53:00,
2013-02-09 10:57:00,47.4,41.5,30.06,SE,142,9.0,14.0,80,0.00,,,0.00,125,Wunderground v.1.15,2013-02-09 16:57:00,
2013-02-09 11:00:00,47.4,41.9,30.06,ESE,122,11.0,15.0,81,0.00,,,0.00,127,Wunderground v.1.15,2013-02-09 17:00:00,
2013-02-09 11:02:00,47.4,41.9,30.06,SSE,150,11.0,15.0,81,0.00,,,0.00,134,Wunderground v.1.15,2013-02-09 17:02:00,
2013-02-09 11:04:00,47.4,41.9,30.06,SSE,153,12.0,19.0,81,0.00,,,0.00,149,Wunderground v.1.15,2013-02-09 17:04:00,
2013-02-09 11:08:00,47.5,42.0,30.05,SE,145,13.0,19.0,81,0.00,,,0.00,227,Wunderground v.1.15,2013-02-09 17:08:00,
2013-02-09 11:09:00,47.6,42.1,30.05,SE,144,12.0,19.0,81,0.00,,,0.00,241,Wunderground v.1.15,2013-02-09 17:09:00,
2013-02-09 11:10:00,47.6,42.1,30.05,SE,135,12.0,12.0,81,0.00,,,0.00,190,Wunderground v.1.15,2013-02-09 17:10:00,
2013-02-09 11:14:00,47.9,42.3,30.05,SE,128,10.0,12.0,81,0.00,,,0.00,146,Wunderground v.1.15,2013-02-09 17:14:00,
2013-02-09 11:16:00,48.0,42.1,30.05,SE,145,10.0,12.0,80,0.00,,,0.00,151,Wunderground v.1.15,2013-02-09 17:16:00,
2013-02-09 11:17:00,48.1,42.2,30.05,South,171,9.0,12.0,80,0.00,,,0.00,163,Wunderground v.1.15,2013-02-09 17:17:00,
2013-02-09 11:18:00,48.1,42.2,30.05,SE,137,9.0,12.0,80,0.00,,,0.00,162,Wunderground v.1.15,2013-02-09 17:18:00,
2013-02-09 11:21:00,48.2,42.3,30.05,SE,138,9.0,9.0,80,0.00,,,0.00,163,Wunderground v.1.15,2013-02-09 17:21:00,
2013-02-09 11:24:00,48.2,42.3,30.04,SE,137,10.0,16.0,80,0.00,,,0.00,169,Wunderground v.1.15,2013-02-09 17:24:00,
2013-02-09 11:26:00,48.3,42.4,30.05,ESE,122,9.0,16.0,80,0.00,,,0.00,167,Wunderground v.1.15,2013-02-09 17:26:00,
2013-02-09 11:29:00,48.5,42.6,30.05,South,184,9.0,16.0,80,0.00,,,0.00,151,Wunderground v.1.15,2013-02-09 17:29:00,
2013-02-09 11:30:00,48.6,42.7,30.05,SE,146,8.0,16.0,80,0.00,,,0.00,149,Wunderground v.1.15,2013-02-09 17:30:00,
2013-02-09 11:31:00,48.6,42.7,30.05,SE,145,8.0,8.0,80,0.00,,,0.00,158,Wunderground v.1.15,2013-02-09 17:31:00,
2013-02-09 11:35:00,48.6,42.7,30.04,SE,134,8.0,12.0,80,0.00,,,0.00,146,Wunderground v.1.15,2013-02-09 17:35:00,
2013-02-09 11:36:00,48.5,42.6,30.04,SSE,156,8.0,13.0,80,0.00,,,0.00,165,Wunderground v.1.15,2013-02-09 17:36:00,
2013-02-09 11:37:00,48.5,42.6,30.04,SSE,153,8.0,17.0,80,0.00,,,0.00,165,Wunderground v.1.15,2013-02-09 17:37:00,
2013-02-09 11:38:00,48.5,42.6,30.04,SE,138,9.0,17.0,80,0.00,,,0.00,167,Wunderground v.1.15,2013-02-09 17:38:00,
2013-02-09 11:42:00,48.5,42.9,30.03,SE,132,11.0,14.0,81,0.00,,,0.00,174,Wunderground v.1.15,2013-02-09 17:42:00,
2013-02-09 11:43:00,48.5,42.9,30.03,SE,133,11.0,14.0,81,0.00,,,0.00,174,Wunderground v.1.15,2013-02-09 17:43:00,
2013-02-09 11:44:00,48.5,42.9,30.03,SSE,155,12.0,14.0,81,0.00,,,0.00,244,Wunderground v.1.15,2013-02-09 17:44:00,
2013-02-09 11:47:00,48.6,43.0,30.03,ESE,118,12.0,14.0,81,0.00,,,0.00,267,Wunderground v.1.15,2013-02-09 17:47:00,
2013-02-09 11:49:00,48.8,43.2,30.03,SE,134,11.0,14.0,81,0.00,,,0.00,258,Wunderground v.1.15,2013-02-09 17:49:00,
2013-02-09 11:50:00,49.0,43.4,30.03,ESE,111,11.0,14.0,81,0.00,,,0.00,313,Wunderground v.1.15,2013-02-09 17:50:00,
2013-02-09 11:54:00,49.1,43.2,30.03,SE,132,11.0,16.0,80,0.00,,,0.00,229,Wunderground v.1.15,2013-02-09 17:54:00,
2013-02-09 11:58:00,49.1,43.2,30.02,SE,140,11.0,17.0,80,0.00,,,0.00,262,Wunderground v.1.15,2013-02-09 17:58:00,
2013-02-09 11:59:00,49.1,43.2,30.02,SE,132,12.0,17.0,80,0.00,,,0.00,253,Wunderground v.1.15,2013-02-09 17:59:00,
2013-02-09 12:02:00,49.0,43.1,30.02,SSE,153,12.0,13.0,80,0.00,,,0.00,195,Wunderground v.1.15,2013-02-09 18:02:00,
2013-02-09 12:03:00,49.0,43.1,30.02,SE,138,12.0,13.0,80,0.00,,,0.00,214,Wunderground v.1.15,2013-02-09 18:03:00,
2013-02-09 12:04:00,49.0,43.1,30.02,SSE,151,12.0,13.0,80,0.00,,,0.00,202,Wunderground v.1.15,2013-02-09 18:04:00,
2013-02-09 12:05:00,49.1,43.2,30.02,SE,135,12.0,13.0,80,0.00,,,0.00,179,Wunderground v.1.15,2013-02-09 18:05:00,
2013-02-09 12:09:00,49.3,43.4,30.01,ESE,116,11.0,13.0,80,0.00,,,0.00,162,Wunderground v.1.15,2013-02-09 18:09:00,
2013-02-09 12:10:00,49.4,43.8,30.01,SE,145,10.0,13.0,81,0.00,,,0.00,156,Wunderground v.1.15,2013-02-09 18:10:00,
2013-02-09 12:12:00,49.5,43.6,30.01,SE,138,10.0,10.0,80,0.00,,,0.00,174,Wunderground v.1.15,2013-02-09 18:12:00,
2013-02-09 12:15:00,49.5,43.6,30.01,SE,144,10.0,15.0,80,0.00,,,0.00,163,Wunderground v.1.15,2013-02-09 18:15:00,
2013-02-09 12:17:00,49.4,43.5,30.01,SE,137,10.0,15.0,80,0.00,,,0.00,178,Wunderground v.1.15,2013-02-09 18:17:00,
2013-02-09 12:18:00,49.4,43.8,30.01,ESE,122,11.0,15.0,81,0.00,,,0.00,181,Wunderground v.1.15,2013-02-09 18:18:00,
2013-02-09 12:22:00,49.3,43.7,30.01,SE,140,12.0,19.0,81,0.00,,,0.00,193,Wunderground v.1.15,2013-02-09 18:22:00,
2013-02-09 12:23:00,49.3,43.7,30.00,SE,132,13.0,19.0,81,0.00,,,0.00,216,Wunderground v.1.15,2013-02-09 18:23:00,
2013-02-09 12:24:00,49.3,43.7,30.00,SE,126,13.0,19.0,81,0.00,,,0.00,192,Wunderground v.1.15,2013-02-09 18:24:00,
2013-02-09 12:27:00,49.4,43.8,30.00,ESE,123,13.0,19.0,81,0.00,,,0.00,206,Wunderground v.1.15,2013-02-09 18:27:00,
2013-02-09 12:29:00,49.4,43.8,30.00,SE,136,13.0,19.0,81,0.00,,,0.00,199,Wunderground v.1.15,2013-02-09 18:29:00,
2013-02-09 12:30:00,49.4,43.8,29.99,SSE,168,13.0,19.0,81,0.00,,,0.00,199,Wunderground v.1.15,2013-02-09 18:30:00,
2013-02-09 12:32:00,49.4,43.8,29.99,ESE,115,13.0,13.0,81,0.00,,,0.00,183,Wunderground v.1.15,2013-02-09 18:32:00,
2013-02-09 12:35:00,49.5,43.9,29.98,SE,124,13.0,13.0,81,0.00,,,0.00,160,Wunderground v.1.15,2013-02-09 18:35:00,
2013-02-09 12:37:00,49.5,43.9,29.98,SE,124,13.0,13.0,81,0.00,,,0.00,160,Wunderground v.1.15,2013-02-09 18:37:00,
2013-02-09 12:40:00,49.7,44.1,29.98,SSE,162,12.0,13.0,81,0.00,,,0.00,142,Wunderground v.1.15,2013-02-09 18:40:00,
2013-02-09 12:41:00,49.7,44.1,29.98,SE,128,11.0,11.0,81,0.00,,,0.00,169,Wunderground v.1.15,2013-02-09 18:41:00,
2013-02-09 12:43:00,49.7,44.1,29.97,ESE,113,11.0,14.0,81,0.00,,,0.00,155,Wunderground v.1.15,2013-02-09 18:43:00,
2013-02-09 12:45:00,49.7,44.1,29.97,ESE,110,11.0,18.0,81,0.00,,,0.00,148,Wunderground v.1.15,2013-02-09 18:45:00,
2013-02-09 12:47:00,49.6,44.0,29.96,ESE,119,12.0,19.0,81,0.00,,,0.00,148,Wunderground v.1.15,2013-02-09 18:47:00,
2013-02-09 12:49:00,49.5,43.9,29.97,SE,140,13.0,19.0,81,0.00,,,0.00,114,Wunderground v.1.15,2013-02-09 18:49:00,
2013-02-09 12:50:00,49.5,43.9,29.97,SE,128,14.0,22.0,81,0.00,,,0.00,118,Wunderground v.1.15,2013-02-09 18:50:00,
2013-02-09 12:52:00,49.5,43.9,29.96,SE,135,14.0,15.0,81,0.00,,,0.00,123,Wunderground v.1.15,2013-02-09 18:52:00,
2013-02-09 12:55:00,49.5,43.9,29.96,ESE,112,14.0,15.0,81,0.00,,,0.00,146,Wunderground v.1.15,2013-02-09 18:55:00,
2013-02-09 12:57:00,49.5,43.9,29.96,SE,132,13.0,15.0,81,0.00,,,0.00,167,Wunderground v.1.15,2013-02-09 18:57:00,
2013-02-09 13:01:00,49.7,44.1,29.95,SE,132,13.0,13.0,81,0.00,,,0.00,160,Wunderground v.1.15,2013-02-09 19:01:00,
2013-02-09 13:02:00,49.7,44.1,29.95,SE,130,12.0,13.0,81,0.00,,,0.00,158,Wunderground v.1.15,2013-02-09 19:02:00,
2013-02-09 13:06:00,49.9,44.3,29.95,SSE,147,12.0,13.0,81,0.00,,,0.00,214,Wunderground v.1.15,2013-02-09 19:06:00,
2013-02-09 13:07:00,50.0,44.4,29.96,ESE,103,12.0,13.0,81,0.00,,,0.00,248,Wunderground v.1.15,2013-02-09 19:07:00,
2013-02-09 13:11:00,50.2,44.6,29.96,ESE,102,12.0,14.0,81,0.00,,,0.00,355,Wunderground v.1.15,2013-02-09 19:11:00,
2013-02-09 13:12:00,50.3,44.7,29.96,ESE,108,12.0,14.0,81,0.00,,,0.00,343,Wunderground v.1.15,2013-02-09 19:12:00,
2013-02-09 13:14:00,50.4,44.5,29.96,SE,136,13.0,14.0,80,0.00,,,0.00,332,Wunderground v.1.15,2013-02-09 19:14:00,
2013-02-09 13:15:00,50.5,44.9,29.96,SE,136,12.0,14.0,81,0.00,,,0.00,304,Wunderground v.1.15,2013-02-09 19:15:00,
2013-02-09 13:21:00,51.1,45.1,29.95,ESE,120,10.0,14.0,80,0.00,,,0.00,292,Wunderground v.1.15,2013-02-09 19:21:00,
2013-02-09 13:22:00,51.1,45.1,29.95,ESE,122,10.0,14.0,80,0.00,,,0.00,301,Wunderground v.1.15,2013-02-09 19:22:00,
2013-02-09 13:26:00,51.2,45.2,29.95,SE,140,10.0,14.0,80,0.00,,,0.00,332,Wunderground v.1.15,2013-02-09 19:26:00,
2013-02-09 13:27:00,51.3,45.3,29.95,SE,128,11.0,14.0,80,0.00,,,0.00,264,Wunderground v.1.15,2013-02-09 19:27:00,
2013-02-09 13:29:00,51.4,45.4,29.95,SE,139,10.0,14.0,80,0.00,,,0.00,283,Wunderground v.1.15,2013-02-09 19:29:00,
2013-02-09 13:32:00,51.4,45.1,29.95,ESE,116,10.0,13.0,79,0.00,,,0.00,176,Wunderground v.1.15,2013-02-09 19:32:00,
2013-02-09 13:36:00,51.5,45.2,29.94,ESE,122,9.0,14.0,79,0.00,,,0.00,162,Wunderground v.1.15,2013-02-09 19:36:00,
2013-02-09 13:38:00,51.4,45.1,29.95,SE,127,9.0,14.0,79,0.00,,,0.00,148,Wunderground v.1.15,2013-02-09 19:38:00,
2013-02-09 13:40:00,51.4,45.4,29.94,SE,133,9.0,14.0,80,0.00,,,0.00,132,Wunderground v.1.15,2013-02-09 19:40:00,
2013-02-09 13:43:00,51.3,45.3,29.93,ESE,120,10.0,16.0,80,0.00,,,0.00,116,Wunderground v.1.15,2013-02-09 19:43:00,
2013-02-09 13:46:00,51.2,45.2,29.93,ESE,123,10.0,16.0,80,0.00,,,0.00,134,Wunderground v.1.15,2013-02-09 19:46:00,
2013-02-09 13:48:00,51.2,45.2,29.93,SSE,153,10.0,16.0,80,0.00,,,0.00,130,Wunderground v.1.15,2013-02-09 19:48:00,
2013-02-09 13:50:00,51.2,45.2,29.93,SSE,148,10.0,16.0,80,0.00,,,0.00,137,Wunderground v.1.15,2013-02-09 19:50:00,
2013-02-09 13:52:00,51.3,45.7,29.93,SE,135,9.0,10.0,81,0.00,,,0.00,155,Wunderground v.1.15,2013-02-09 19:52:00,
2013-02-09 13:56:00,51.4,45.4,29.93,ESE,114,9.0,13.0,80,0.00,,,0.00,178,Wunderground v.1.15,2013-02-09 19:56:00,
2013-02-09 13:58:00,51.4,45.4,29.92,ESE,119,10.0,13.0,80,0.00,,,0.00,148,Wunderground v.1.15,2013-02-09 19:58:00,
2013-02-09 14:01:00,51.2,45.6,29.92,SE,124,11.0,11.0,81,0.00,,,0.00,118,Wunderground v.1.15,2013-02-09 20:01:00,
2013-02-09 14:02:00,51.2,45.6,29.92,SE,129,11.0,11.0,81,0.00,,,0.00,120,Wunderground v.1.15,2013-02-09 20:02:00,
2013-02-09 14:04:00,51.4,45.8,29.91,ESE,120,11.0,16.0,81,0.00,,,0.00,123,Wunderground v.1.15,2013-02-09 20:04:00,
2013-02-09 14:06:00,51.3,45.7,29.92,SE,138,12.0,16.0,81,0.00,,,0.00,125,Wunderground v.1.15,2013-02-09 20:06:00,
2013-02-09 14:10:00,51.4,45.8,29.91,SE,125,10.0,16.0,81,0.00,,,0.00,77,Wunderground v.1.15,2013-02-09 20:10:00,
2013-02-09 14:11:00,51.4,45.8,29.91,ESE,123,10.0,12.0,81,0.00,,,0.00,77,Wunderground v.1.15,2013-02-09 20:11:00,
2013-02-09 14:14:00,51.3,46.0,29.91,SE,139,10.0,12.0,82,0.00,,,0.00,83,Wunderground v.1.15,2013-02-09 20:14:00,
2013-02-09 14:16:00,51.3,46.0,29.91,SE,138,10.0,12.0,82,0.00,,,0.00,67,Wunderground v.1.15,2013-02-09 20:16:00,
2013-02-09 14:17:00,51.3,46.0,29.91,ESE,119,10.0,12.0,82,0.00,,,0.00,56,Wunderground v.1.15,2013-02-09 20:17:00,
2013-02-09 14:21:00,51.4,46.1,29.91,SE,131,10.0,10.0,82,0.00,,,0.00,53,Wunderground v.1.15,2013-02-09 20:21:00,
2013-02-09 14:22:00,51.4,46.1,29.91,ESE,107,9.0,10.0,82,0.00,,,0.00,47,Wunderground v.1.15,2013-02-09 20:22:00,
2013-02-09 14:23:00,51.4,46.1,29.91,East,94,9.0,10.0,82,0.00,,,0.00,51,Wunderground v.1.15,2013-02-09 20:23:00,
2013-02-09 14:25:00,51.4,46.1,29.91,SE,128,9.0,13.0,82,0.00,,,0.00,51,Wunderground v.1.15,2013-02-09 20:25:00,
2013-02-09 14:27:00,51.4,46.1,29.91,ESE,107,9.0,13.0,82,0.00,,,0.00,53,Wunderground v.1.15,2013-02-09 20:27:00,
2013-02-09 14:29:00,51.3,46.0,29.91,SE,129,10.0,14.0,82,0.00,,,0.00,58,Wunderground v.1.15,2013-02-09 20:29:00,
2013-02-09 14:31:00,51.3,46.0,29.91,SE,146,10.0,10.0,82,0.00,,,0.00,39,Wunderground v.1.15,2013-02-09 20:31:00,
2013-02-09 14:33:00,51.3,46.0,29.91,SE,125,11.0,12.0,82,0.00,,,0.00,39,Wunderground v.1.15,2013-02-09 20:33:00,
2013-02-09 14:38:00,51.3,46.3,29.90,ESE,117,10.0,13.0,83,0.00,,,0.00,69,Wunderground v.1.15,2013-02-09 20:38:00,
2013-02-09 14:39:00,51.3,46.0,29.90,ESE,117,10.0,13.0,82,0.00,,,0.00,65,Wunderground v.1.15,2013-02-09 20:39:00,
2013-02-09 14:42:00,51.2,45.9,29.90,SE,124,10.0,12.0,82,0.00,,,0.00,91,Wunderground v.1.15,2013-02-09 20:42:00,
2013-02-09 14:44:00,51.2,46.2,29.90,ESE,122,11.0,13.0,83,0.00,,,0.00,81,Wunderground v.1.15,2013-02-09 20:44:00,
2013-02-09 14:47:00,51.3,46.3,29.89,SE,126,11.0,13.0,83,0.00,,,0.00,93,Wunderground v.1.15,2013-02-09 20:47:00,
2013-02-09 14:49:00,51.3,46.3,29.89,SE,146,12.0,13.0,83,0.00,,,0.00,65,Wunderground v.1.15,2013-02-09 20:49:00,
2013-02-09 14:50:00,51.3,46.3,29.89,ESE,115,11.0,14.0,83,0.00,,,0.00,69,Wunderground v.1.15,2013-02-09 20:50:00,
2013-02-09 14:55:00,51.4,46.4,29.88,ESE,103,12.0,17.0,83,0.00,,,0.00,74,Wunderground v.1.15,2013-02-09 20:55:00,
2013-02-09 14:57:00,51.5,46.2,29.88,SE,139,12.0,17.0,82,0.00,,,0.00,60,Wunderground v.1.15,2013-02-09 20:57:00,
2013-02-09 14:59:00,51.4,46.4,29.88,ESE,113,12.0,17.0,83,0.00,,,0.00,76,Wunderground v.1.15,2013-02-09 20:59:00,
2013-02-09 15:01:00,51.5,46.5,29.88,East,101,12.0,15.0,83,0.00,,,0.00,47,Wunderground v.1.15,2013-02-09 21:01:00,
2013-02-09 15:03:00,51.5,46.5,29.88,ESE,116,12.0,16.0,83,0.00,,,0.00,54,Wunderground v.1.15,2013-02-09 21:03:00,
2013-02-09 15:06:00,51.5,46.5,29.88,ESE,115,12.0,16.0,83,0.00,,,0.00,56,Wunderground v.1.15,2013-02-09 21:06:00,
2013-02-09 15:08:00,51.5,46.5,29.88,ESE,122,11.0,16.0,83,0.00,,,0.00,70,Wunderground v.1.15,2013-02-09 21:08:00,
2013-02-09 15:11:00,51.6,46.6,29.88,ESE,120,11.0,16.0,83,0.00,,,0.00,51,Wunderground v.1.15,2013-02-09 21:11:00,
2013-02-09 15:16:00,51.7,46.7,29.87,SE,144,13.0,16.0,83,0.00,,,0.00,84,Wunderground v.1.15,2013-02-09 21:16:00,
2013-02-09 15:17:00,51.7,46.7,29.88,East,96,13.0,16.0,83,0.00,,,0.00,58,Wunderground v.1.15,2013-02-09 21:17:00,
2013-02-09 15:21:00,51.7,46.7,29.87,SE,128,13.0,13.0,83,0.00,,,0.00,95,Wunderground v.1.15,2013-02-09 21:21:00,
2013-02-09 15:22:00,51.7,46.7,29.87,ESE,113,13.0,13.0,83,0.00,,,0.00,67,Wunderground v.1.15,2013-02-09 21:22:00,
2013-02-09 15:24:00,51.7,46.7,29.87,ESE,118,12.0,13.0,83,0.00,,,0.00,77,Wunderground v.1.15,2013-02-09 21:24:00,
2013-02-09 15:27:00,51.6,46.6,29.87,SE,126,12.0,17.0,83,0.00,,,0.00,58,Wunderground v.1.15,2013-02-09 21:27:00,
2013-02-09 15:29:00,51.5,46.8,29.87,ESE,115,13.0,17.0,84,0.00,,,0.00,47,Wunderground v.1.15,2013-02-09 21:29:00,
2013-02-09 15:33:00,51.4,46.7,29.86,ESE,117,13.0,16.0,84,0.00,,,0.00,46,Wunderground v.1.15,2013-02-09 21:33:00,
2013-02-09 15:34:00,51.4,46.7,29.86,SE,129,13.0,16.0,84,0.00,,,0.00,37,Wunderground v.1.15,2013-02-09 21:34:00,
2013-02-09 15:38:00,51.4,47.0,29.87,East,88,12.0,16.0,85,0.00,,,0.00,39,Wunderground v.1.15,2013-02-09 21:38:00,
2013-02-09 15:39:00,51.4,47.0,29.87,ESE,115,12.0,16.0,85,0.00,,,0.00,39,Wunderground v.1.15,2013-02-09 21:39:00,
2013-02-09 15:40:00,51.3,46.9,29.86,SE,125,12.0,16.0,85,0.00,,,0.00,40,Wunderground v.1.15,2013-02-09 21:40:00,
2013-02-09 15:44:00,51.2,46.8,29.87,SE,137,12.0,14.0,85,0.00,,,0.00,37,Wunderground v.1.15,2013-02-09 21:44:00,
2013-02-09 15:47:00,51.0,47.0,29.86,ESE,121,13.0,14.0,86,0.00,,,0.00,26,Wunderground v.1.15,2013-02-09 21:47:00,
2013-02-09 15:52:00,50.8,46.8,29.87,ESE,104,14.0,14.0,86,0.00,,,0.00,26,Wunderground v.1.15,2013-02-09 21:52:00,
2013-02-09 15:54:00,50.7,46.7,29.87,SE,130,14.0,19.0,86,0.00,,,0.00,23,Wunderground v.1.15,2013-02-09 21:54:00,
2013-02-09 15:56:00,50.7,46.7,29.87,SE,136,13.0,19.0,86,0.00,,,0.00,26,Wunderground v.1.15,2013-02-09 21:56:00,
2013-02-09 15:57:00,50.6,46.6,29.87,ESE,111,13.0,19.0,86,0.00,,,0.00,26,Wunderground v.1.15,2013-02-09 21:57:00,
2013-02-09 15:59:00,50.6,46.6,29.88,SE,136,12.0,19.0,86,0.00,,,0.00,19,Wunderground v.1.15,2013-02-09 21:59:00,
2013-02-09 16:01:00,50.5,46.8,29.87,ESE,121,11.0,16.0,87,0.00,,,0.00,26,Wunderground v.1.15,2013-02-09 22:01:00,
2013-02-09 16:03:00,50.4,46.7,29.87,SE,132,11.0,16.0,87,0.00,,,0.00,26,Wunderground v.1.15,2013-02-09 22:03:00,
2013-02-09 16:06:00,50.3,46.6,29.87,ESE,113,11.0,18.0,87,0.00,,,0.00,19,Wunderground v.1.15,2013-02-09 22:06:00,
2013-02-09 16:07:00,50.3,46.6,29.87,East,100,11.0,18.0,87,0.00,,,0.00,23,Wunderground v.1.15,2013-02-09 22:07:00,
2013-02-09 16:11:00,50.2,46.5,29.87,ESE,119,12.0,13.0,87,0.00,,,0.00,42,Wunderground v.1.15,2013-02-09 22:11:00,
2013-02-09 16:14:00,50.2,46.8,29.87,ESE,102,12.0,13.0,88,0.00,,,0.00,42,Wunderground v.1.15,2013-02-09 22:14:00,
2013-02-09 16:15:00,50.1,46.7,29.87,ESE,115,12.0,13.0,88,0.00,,,0.00,26,Wunderground v.1.15,2013-02-09 22:15:00,
2013-02-09 16:18:00,50.1,46.7,29.87,SE,138,12.0,16.0,88,0.00,,,0.00,26,Wunderground v.1.15,2013-02-09 22:18:00,
2013-02-09 16:20:00,50.1,46.7,29.87,ESE,119,12.0,16.0,88,0.00,,,0.00,33,Wunderground v.1.15,2013-02-09 22:20:00,
2013-02-09 16:24:00,50.1,46.7,29.86,SE,134,12.0,15.0,88,0.00,,,0.00,37,Wunderground v.1.15,2013-02-09 22:24:00,
2013-02-09 16:25:00,50.1,46.7,29.86,ESE,123,12.0,15.0,88,0.00,,,0.00,44,Wunderground v.1.15,2013-02-09 22:25:00,
2013-02-09 16:26:00,50.1,46.7,29.86,ESE,103,12.0,15.0,88,0.00,,,0.00,44,Wunderground v.1.15,2013-02-09 22:26:00,
2013-02-09 16:27:00,50.1,46.7,29.86,SE,128,12.0,15.0,88,0.00,,,0.00,39,Wunderground v.1.15,2013-02-09 22:27:00,
2013-02-09 16:29:00,50.1,46.7,29.86,ESE,117,11.0,15.0,88,0.00,,,0.00,35,Wunderground v.1.15,2013-02-09 22:29:00,
2013-02-09 16:32:00,50.1,46.7,29.86,ESE,109,12.0,12.0,88,0.00,,,0.00,23,Wunderground v.1.15,2013-02-09 22:32:00,
2013-02-09 16:35:00,50.0,46.9,29.86,ESE,112,11.0,12.0,89,0.00,,,0.00,25,Wunderground v.1.15,2013-02-09 22:35:00,
2013-02-09 16:38:00,50.0,46.9,29.86,ESE,105,11.0,12.0,89,0.00,,,0.00,25,Wunderground v.1.15,2013-02-09 22:38:00,
2013-02-09 16:39:00,50.0,46.9,29.86,ESE,105,11.0,12.0,89,0.00,,,0.00,25,Wunderground v.1.15,2013-02-09 22:39:00,
2013-02-09 16:40:00,49.9,46.8,29.86,ESE,117,11.0,14.0,89,0.00,,,0.00,25,Wunderground v.1.15,2013-02-09 22:40:00,
2013-02-09 16:41:00,49.9,46.8,29.86,ESE,104,11.0,11.0,89,0.00,,,0.00,25,Wunderground v.1.15,2013-02-09 22:41:00,
2013-02-09 16:45:00,49.8,46.7,29.86,ESE,106,12.0,15.0,89,0.00,,,0.00,23,Wunderground v.1.15,2013-02-09 22:45:00,
2013-02-09 16:46:00,49.8,46.7,29.86,ESE,114,12.0,15.0,89,0.00,,,0.00,25,Wunderground v.1.15,2013-02-09 22:46:00,
2013-02-09 16:47:00,49.8,46.7,29.87,ESE,103,13.0,16.0,89,0.00,,,0.00,23,Wunderground v.1.15,2013-02-09 22:47:00,
2013-02-09 16:50:00,49.7,46.6,29.86,SE,139,13.0,16.0,89,0.00,,,0.00,18,Wunderground v.1.15,2013-02-09 22:50:00,
2013-02-09 16:52:00,49.7,46.6,29.86,ESE,120,13.0,13.0,89,0.00,,,0.00,18,Wunderground v.1.15,2013-02-09 22:52:00,
2013-02-09 16:54:00,49.7,46.6,29.86,ESE,114,12.0,14.0,89,0.00,,,0.00,25,Wunderground v.1.15,2013-02-09 22:54:00,
2013-02-09 16:55:00,49.7,46.6,29.86,ESE,113,12.0,16.0,89,0.00,,,0.00,26,Wunderground v.1.15,2013-02-09 22:55:00,
2013-02-09 16:57:00,49.7,46.6,29.86,ESE,109,12.0,16.0,89,0.00,,,0.00,28,Wunderground v.1.15,2013-02-09 22:57:00,
2013-02-09 16:59:00,49.7,46.6,29.86,ESE,109,12.0,16.0,89,0.00,,,0.00,25,Wunderground v.1.15,2013-02-09 22:59:00,
2013-02-09 17:01:00,49.7,46.9,29.86,ESE,118,12.0,12.0,90,0.00,,,0.00,21,Wunderground v.1.15,2013-02-09 23:01:00,
2013-02-09 17:05:00,49.7,46.9,29.86,ESE,112,11.0,12.0,90,0.00,,,0.00,16,Wunderground v.1.15,2013-02-09 23:05:00,
2013-02-09 17:06:00,49.7,46.9,29.86,ESE,118,11.0,12.0,90,0.00,,,0.00,16,Wunderground v.1.15,2013-02-09 23:06:00,
2013-02-09 17:10:00,49.7,46.9,29.85,ESE,117,10.0,12.0,90,0.00,,,0.00,16,Wunderground v.1.15,2013-02-09 23:10:00,
2013-02-09 17:11:00,49.7,46.9,29.85,ESE,105,9.0,9.0,90,0.00,,,0.00,14,Wunderground v.1.15,2013-02-09 23:11:00,
2013-02-09 17:16:00,49.7,46.9,29.85,East,93,10.0,12.0,90,0.00,,,0.00,23,Wunderground v.1.15,2013-02-09 23:16:00,
2013-02-09 17:17:00,49.7,46.9,29.85,ESE,114,10.0,12.0,90,0.00,,,0.00,26,Wunderground v.1.15,2013-02-09 23:17:00,
2013-02-09 17:20:00,49.6,46.8,29.85,ESE,113,10.0,16.0,90,0.00,,,0.00,18,Wunderground v.1.15,2013-02-09 23:20:00,
2013-02-09 17:22:00,49.6,46.8,29.85,SE,130,11.0,11.0,90,0.00,,,0.00,14,Wunderground v.1.15,2013-02-09 23:22:00,
2013-02-09 17:26:00,49.7,46.9,29.85,East,101,10.0,11.0,90,0.00,,,0.00,14,Wunderground v.1.15,2013-02-09 23:26:00,
2013-02-09 17:27:00,49.7,46.9,29.85,ESE,113,10.0,11.0,90,0.00,,,0.00,9,Wunderground v.1.15,2013-02-09 23:27:00,
2013-02-09 17:31:00,49.7,46.9,29.85,East,101,9.0,9.0,90,0.00,,,0.00,5,Wunderground v.1.15,2013-02-09 23:31:00,
2013-02-09 17:33:00,49.7,47.2,29.85,ESE,116,8.0,12.0,91,0.00,,,0.00,5,Wunderground v.1.15,2013-02-09 23:33:00,
2013-02-09 17:35:00,49.7,47.2,29.85,ESE,117,9.0,15.0,91,0.00,,,0.00,5,Wunderground v.1.15,2013-02-09 23:35:00,
2013-02-09 17:39:00,49.6,47.1,29.85,East,101,9.0,15.0,91,0.00,,,0.00,0,Wunderground v.1.15,2013-02-09 23:39:00,
2013-02-09 17:40:00,49.6,47.1,29.85,East,82,10.0,15.0,91,0.00,,,0.00,0,Wunderground v.1.15,2013-02-09 23:40:00,
2013-02-09 17:43:00,49.6,47.1,29.85,SE,128,10.0,13.0,91,0.00,,,0.00,0,Wunderground v.1.15,2013-02-09 23:43:00,
2013-02-09 17:44:00,49.6,47.1,29.85,ESE,111,10.0,13.0,91,0.00,,,0.00,0,Wunderground v.1.15,2013-02-09 23:44:00,
2013-02-09 17:48:00,49.5,47.0,29.85,SE,136,9.0,13.0,91,0.00,,,0.00,0,Wunderground v.1.15,2013-02-09 23:48:00,
2013-02-09 17:50:00,49.5,47.0,29.85,ESE,106,9.0,13.0,91,0.00,,,0.00,0,Wunderground v.1.15,2013-02-09 23:50:00,
2013-02-09 17:51:00,49.5,47.0,29.85,East,96,9.0,10.0,91,0.00,,,0.00,0,Wunderground v.1.15,2013-02-09 23:51:00,
2013-02-09 17:55:00,49.4,46.9,29.85,ESE,121,10.0,13.0,91,0.00,,,0.00,0,Wunderground v.1.15,2013-02-09 23:55:00,
2013-02-09 17:57:00,49.4,46.9,29.85,SE,137,10.0,13.0,91,0.00,,,0.00,0,Wunderground v.1.15,2013-02-09 23:57:00,
2013-02-09 17:58:00,49.4,46.9,29.85,SE,130,10.0,13.0,91,0.00,,,0.00,0,Wunderground v.1.15,2013-02-09 23:58:00,
2013-02-09 18:01:00,49.4,46.9,29.85,ESE,109,11.0,11.0,91,0.00,,,0.00,0,Wunderground v.1.15,2013-02-10 00:01:00,
2013-02-09 18:02:00,49.4,46.9,29.85,SE,130,11.0,14.0,91,0.00,,,0.00,0,Wunderground v.1.15,2013-02-10 00:02:00,
2013-02-09 18:03:00,49.4,46.9,29.85,SE,129,11.0,14.0,91,0.00,,,0.00,0,Wunderground v.1.15,2013-02-10 00:03:00,
2013-02-09 18:06:00,49.5,47.0,29.84,East,94,11.0,14.0,91,0.00,,,0.00,0,Wunderground v.1.15,2013-02-10 00:06:00,
2013-02-09 18:08:00,49.5,47.0,29.84,ESE,117,11.0,14.0,91,0.00,,,0.00,0,Wunderground v.1.15,2013-02-10 00:08:00,
2013-02-09 18:10:00,49.5,47.0,29.84,SE,126,12.0,17.0,91,0.00,,,0.00,0,Wunderground v.1.15,2013-02-10 00:10:00,
2013-02-09 18:13:00,49.5,47.0,29.83,East,95,12.0,16.0,91,0.00,,,0.00,0,Wunderground v.1.15,2013-02-10 00:13:00,
2013-02-09 18:14:00,49.5,47.0,29.83,ESE,115,12.0,16.0,91,0.00,,,0.00,0,Wunderground v.1.15,2013-02-10 00:14:00,
2013-02-09 18:15:00,49.5,47.0,29.83,SE,128,12.0,16.0,91,0.00,,,0.00,0,Wunderground v.1.15,2013-02-10 00:15:00,
2013-02-09 18:18:00,49.5,47.0,29.83,SE,137,12.0,16.0,91,0.00,,,0.00,0,Wunderground v.1.15,2013-02-10 00:18:00,
2013-02-09 18:23:00,49.6,47.1,29.83,East,88,12.0,18.0,91,0.00,,,0.00,0,Wunderground v.1.15,2013-02-10 00:23:00,
2013-02-09 18:24:00,49.6,47.1,29.83,ESE,111,12.0,18.0,91,0.00,,,0.00,0,Wunderground v.1.15,2013-02-10 00:24:00,
2013-02-09 18:25:00,49.6,47.1,29.83,SE,134,13.0,18.0,91,0.00,,,0.00,0,Wunderground v.1.15,2013-02-10 00:25:00,
2013-02-09 18:29:00,49.7,47.2,29.82,ESE,105,13.0,18.0,91,0.00,,,0.00,0,Wunderground v.1.15,2013-02-10 00:29:00,
2013-02-09 18:30:00,49.7,47.2,29.82,ESE,105,13.0,18.0,91,0.00,,,0.00,0,Wunderground v.1.15,2013-02-10 00:30:00,
2013-02-09 18:34:00,49.7,47.2,29.82,ESE,119,14.0,16.0,91,0.00,,,0.00,0,Wunderground v.1.15,2013-02-10 00:34:00,
2013-02-09 18:37:00,49.8,47.3,29.82,ESE,107,13.0,16.0,91,0.00,,,0.00,0,Wunderground v.1.15,2013-02-10 00:37:00,
2013-02-09 18:38:00,49.8,47.3,29.82,ESE,118,13.0,16.0,91,0.00,,,0.00,0,Wunderground v.1.15,2013-02-10 00:38:00,
2013-02-09 18:39:00,49.8,47.3,29.82,ESE,111,13.0,16.0,91,0.00,,,0.00,0,Wunderground v.1.15,2013-02-10 00:39:00,
2013-02-09 18:45:00,49.8,47.6,29.82,ESE,116,11.0,13.0,92,0.00,,,0.00,0,Wunderground v.1.15,2013-02-10 00:45:00,
2013-02-09 18:48:00,49.9,47.7,29.82,SE,129,10.0,13.0,92,0.00,,,0.00,0,Wunderground v.1.15,2013-02-10 00:48:00,
2013-02-09 18:50:00,49.8,47.6,29.81,East,83,11.0,15.0,92,0.00,,,0.00,0,Wunderground v.1.15,2013-02-10 00:50:00,
2013-02-09 18:54:00,49.8,47.3,29.82,SE,132,11.0,16.0,91,0.00,,,0.00,0,Wunderground v.1.15,2013-02-10 00:54:00,
2013-02-09 18:56:00,49.9,47.4,29.82,ESE,109,11.0,16.0,91,0.00,,,0.00,0,Wunderground v.1.15,2013-02-10 00:56:00,
2013-02-09 19:01:00,50.0,47.8,29.82,ESE,105,12.0,13.0,92,0.00,,,0.00,0,Wunderground v.1.15,2013-02-10 01:01:00,
2013-02-09 19:02:00,50.0,47.8,29.82,East,101,12.0,15.0,92,0.00,,,0.00,0,Wunderground v.1.15,2013-02-10 01:02:00,
2013-02-09 19:04:00,50.0,47.8,29.82,East,80,12.0,15.0,92,0.00,,,0.00,0,Wunderground v.1.15,2013-02-10 01:04:00,
2013-02-09 19:06:00,50.0,47.8,29.82,SE,126,12.0,15.0,92,0.00,,,0.00,0,Wunderground v.1.15,2013-02-10 01:06:00,
2013-02-09 19:11:00,50.1,47.9,29.82,SE,130,13.0,13.0,92,0.00,,,0.00,0,Wunderground v.1.15,2013-02-10 01:11:00,
2013-02-09 19:12:00,50.1,47.9,29.82,ESE,119,12.0,14.0,92,0.00,,,0.00,0,Wunderground v.1.15,2013-02-10 01:12:00,
2013-02-09 19:14:00,50.2,48.0,29.82,ESE,108,13.0,14.0,92,0.00,,,0.00,0,Wunderground v.1.15,2013-02-10 01:14:00,
2013-02-09 19:16:00,50.2,48.0,29.82,ESE,109,12.0,14.0,92,0.00,,,0.00,0,Wunderground v.1.15,2013-02-10 01:16:00,
2013-02-09 19:17:00,50.2,48.0,29.82,ESE,112,12.0,14.0,92,0.00,,,0.00,0,Wunderground v.1.15,2013-02-10 01:17:00,
2013-02-09 19:22:00,50.3,48.1,29.82,ESE,102,11.0,12.0,92,0.00,,,0.00,0,Wunderground v.1.15,2013-02-10 01:22:00,
2013-02-09 19:24:00,50.3,48.1,29.82,East,101,11.0,12.0,92,0.00,,,0.00,0,Wunderground v.1.15,2013-02-10 01:24:00,
2013-02-09 19:25:00,50.3,48.1,29.82,ESE,117,10.0,12.0,92,0.00,,,0.00,0,Wunderground v.1.15,2013-02-10 01:25:00,
2013-02-09 19:28:00,50.3,48.1,29.82,SE,136,10.0,15.0,92,0.00,,,0.00,0,Wunderground v.1.15,2013-02-10 01:28:00,
2013-02-09 19:30:00,50.3,48.1,29.82,East,99,9.0,15.0,92,0.00,,,0.00,0,Wunderground v.1.15,2013-02-10 01:30:00,
2013-02-09 19:32:00,50.4,48.2,29.82,ESE,103,10.0,15.0,92,0.00,,,0.00,0,Wunderground v.1.15,2013-02-10 01:32:00,
2013-02-09 19:34:00,50.4,48.2,29.81,ESE,123,10.0,15.0,92,0.00,,,0.00,0,Wunderground v.1.15,2013-02-10 01:34:00,
2013-02-09 19:37:00,50.4,48.2,29.82,SE,131,11.0,15.0,92,0.00,,,0.00,0,Wunderground v.1.15,2013-02-10 01:37:00,
2013-02-09 19:39:00,50.4,48.2,29.82,SE,136,11.0,15.0,92,0.00,,,0.00,0,Wunderground v.1.15,2013-02-10 01:39:00,
2013-02-09 19:40:00,50.4,48.2,29.82,SE,140,11.0,15.0,92,0.00,,,0.00,0,Wunderground v.1.15,2013-02-10 01:40:00,
2013-02-09 19:42:00,50.5,48.3,29.82,SSE,165,10.0,13.0,92,0.00,,,0.00,0,Wunderground v.1.15,2013-02-10 01:42:00,
2013-02-09 19:45:00,50.6,48.4,29.82,ESE,109,11.0,20.0,92,0.00,,,0.00,0,Wunderground v.1.15,2013-02-10 01:45:00,
2013-02-09 19:47:00,50.6,48.4,29.82,ESE,119,11.0,20.0,92,0.00,,,0.00,0,Wunderground v.1.15,2013-02-10 01:47:00,
2013-02-09 19:48:00,50.6,48.4,29.82,SE,129,10.0,20.0,92,0.00,,,0.00,0,Wunderground v.1.15,2013-02-10 01:48:00,
2013-02-09 19:52:00,50.6,48.4,29.82,SE,128,10.0,11.0,92,0.00,,,0.00,0,Wunderground v.1.15,2013-02-10 01:52:00,
2013-02-09 19:54:00,50.7,48.5,29.81,SE,135,9.0,11.0,92,0.00,,,0.00,0,Wunderground v.1.15,2013-02-10 01:54:00,
2013-02-09 19:59:00,50.8,48.6,29.82,East,92,9.0,14.0,92,0.00,,,0.00,0,Wunderground v.1.15,2013-02-10 01:59:00,
2013-02-09 20:01:00,50.8,48.6,29.82,ESE,107,9.0,9.0,92,0.00,,,0.00,0,Wunderground v.1.15,2013-02-10 02:01:00,
2013-02-09 20:02:00,50.8,48.6,29.83,SE,134,9.0,9.0,92,0.00,,,0.00,0,Wunderground v.1.15,2013-02-10 02:02:00,
2013-02-09 20:03:00,50.9,48.7,29.83,ESE,112,9.0,11.0,92,0.00,,,0.00,0,Wunderground v.1.15,2013-02-10 02:03:00,
2013-02-09 20:06:00,50.9,48.7,29.82,SE,128,8.0,11.0,92,0.00,,,0.00,0,Wunderground v.1.15,2013-02-10 02:06:00,
2013-02-09 20:08:00,50.9,48.7,29.83,ESE,107,8.0,11.0,92,0.00,,,0.00,0,Wunderground v.1.15,2013-02-10 02:08:00,
2013-02-09 20:09:00,50.9,48.7,29.83,SE,130,8.0,11.0,92,0.00,,,0.00,0,Wunderground v.1.15,2013-02-10 02:09:00,
2013-02-09 20:12:00,51.0,48.8,29.83,ESE,106,8.0,10.0,92,0.00,,,0.00,0,Wunderground v.1.15,2013-02-10 02:12:00,
2013-02-09 20:13:00,51.0,48.8,29.83,SE,138,8.0,12.0,92,0.00,,,0.00,0,Wunderground v.1.15,2013-02-10 02:13:00,
2013-02-09 20:16:00,51.1,48.9,29.83,ESE,120,8.0,13.0,92,0.00,,,0.00,0,Wunderground v.1.15,2013-02-10 02:16:00,
2013-02-09 20:20:00,51.2,49.0,29.83,East,99,8.0,13.0,92,0.00,,,0.00,0,Wunderground v.1.15,2013-02-10 02:20:00,
2013-02-09 20:22:00,51.2,49.0,29.83,ESE,113,9.0,11.0,92,0.00,,,0.00,0,Wunderground v.1.15,2013-02-10 02:22:00,
2013-02-09 20:25:00,51.3,49.1,29.82,SE,144,9.0,11.0,92,0.00,,,0.00,0,Wunderground v.1.15,2013-02-10 02:25:00,
2013-02-09 20:29:00,51.3,49.1,29.82,SE,126,9.0,11.0,92,0.00,,,0.00,0,Wunderground v.1.15,2013-02-10 02:29:00,
2013-02-09 20:33:00,51.4,49.2,29.81,ESE,121,9.0,17.0,92,0.00,,,0.00,0,Wunderground v.1.15,2013-02-10 02:33:00,
2013-02-09 20:34:00,51.4,49.2,29.81,ESE,122,9.0,17.0,92,0.00,,,0.00,0,Wunderground v.1.15,2013-02-10 02:34:00,
2013-02-09 20:38:00,51.5,49.3,29.81,ESE,113,9.0,17.0,92,0.00,,,0.00,0,Wunderground v.1.15,2013-02-10 02:38:00,
2013-02-09 20:39:00,51.5,49.3,29.81,ESE,120,9.0,17.0,92,0.00,,,0.00,0,Wunderground v.1.15,2013-02-10 02:39:00,
2013-02-09 20:43:00,51.6,49.4,29.81,ESE,116,9.0,10.0,92,0.00,,,0.00,0,Wunderground v.1.15,2013-02-10 02:43:00,
2013-02-09 20:44:00,51.6,49.4,29.81,SE,125,9.0,10.0,92,0.00,,,0.00,0,Wunderground v.1.15,2013-02-10 02:44:00,
2013-02-09 20:45:00,51.6,49.4,29.81,ESE,119,9.0,15.0,92,0.00,,,0.00,0,Wunderground v.1.15,2013-02-10 02:45:00,
2013-02-09 20:49:00,51.6,49.4,29.81,ESE,115,10.0,15.0,92,0.00,,,0.00,0,Wunderground v.1.15,2013-02-10 02:49:00,
2013-02-09 20:52:00,51.7,49.5,29.81,ESE,112,10.0,11.0,92,0.00,,,0.00,0,Wunderground v.1.15,2013-02-10 02:52:00,
2013-02-09 20:55:00,51.8,49.5,29.81,ESE,121,10.0,14.0,92,0.00,,,0.00,0,Wunderground v.1.15,2013-02-10 02:55:00,
2013-02-09 21:01:00,51.9,49.6,29.80,ESE,110,10.0,15.0,92,0.00,,,0.00,0,Wunderground v.1.15,2013-02-10 03:01:00,
2013-02-09 21:02:00,52.0,49.7,29.80,ESE,102,10.0,15.0,92,0.00,,,0.00,0,Wunderground v.1.15,2013-02-10 03:02:00,
2013-02-09 21:06:00,52.2,49.9,29.80,ESE,104,11.0,17.0,92,0.00,,,0.00,0,Wunderground v.1.15,2013-02-10 03:06:00,
2013-02-09 21:08:00,52.2,49.9,29.80,ESE,123,12.0,17.0,92,0.00,,,0.00,0,Wunderground v.1.15,2013-02-10 03:08:00,
2013-02-09 21:13:00,52.4,50.1,29.80,ESE,109,12.0,12.0,92,0.00,,,0.00,0,Wunderground v.1.15,2013-02-10 03:13:00,
2013-02-09 21:16:00,52.5,50.2,29.80,ESE,123,11.0,14.0,92,0.00,,,0.00,0,Wunderground v.1.15,2013-02-10 03:16:00,
2013-02-09 21:17:00,52.6,50.3,29.80,SE,132,11.0,14.0,92,0.00,,,0.00,0,Wunderground v.1.15,2013-02-10 03:17:00,
2013-02-09 21:19:00,52.6,50.3,29.80,SE,129,11.0,14.0,92,0.00,,,0.00,0,Wunderground v.1.15,2013-02-10 03:19:00,
2013-02-09 21:20:00,52.7,50.4,29.80,ESE,123,11.0,14.0,92,0.00,,,0.00,0,Wunderground v.1.15,2013-02-10 03:20:00,
2013-02-09 21:23:00,52.7,50.4,29.80,ESE,119,12.0,14.0,92,0.00,,,0.00,0,Wunderground v.1.15,2013-02-10 03:23:00,
2013-02-09 21:26:00,52.8,50.5,29.80,ESE,119,12.0,18.0,92,0.00,,,0.00,0,Wunderground v.1.15,2013-02-10 03:26:00,
2013-02-09 21:31:00,53.0,50.7,29.80,SE,134,12.0,12.0,92,0.00,,,0.00,0,Wunderground v.1.15,2013-02-10 03:31:00,
2013-02-09 21:32:00,53.0,50.7,29.79,ESE,115,12.0,14.0,92,0.00,,,0.00,0,Wunderground v.1.15,2013-02-10 03:32:00,
2013-02-09 21:33:00,53.0,50.7,29.79,ESE,114,12.0,14.0,92,0.00,,,0.00,0,Wunderground v.1.15,2013-02-10 03:33:00,
2013-02-09 21:36:00,53.1,50.8,29.79,ESE,103,12.0,14.0,92,0.00,,,0.00,0,Wunderground v.1.15,2013-02-10 03:36:00,
2013-02-09 21:37:00,53.1,50.8,29.79,ESE,115,11.0,14.0,92,0.00,,,0.00,0,Wunderground v.1.15,2013-02-10 03:37:00,
2013-02-09 21:38:00,53.1,50.8,29.79,ESE,121,11.0,14.0,92,0.00,,,0.00,0,Wunderground v.1.15,2013-02-10 03:38:00,
2013-02-09 21:42:00,53.2,50.9,29.79,SE,131,11.0,13.0,92,0.00,,,0.00,0,Wunderground v.1.15,2013-02-10 03:42:00,
2013-02-09 21:43:00,53.3,51.0,29.79,SE,131,11.0,13.0,92,0.00,,,0.00,0,Wunderground v.1.15,2013-02-10 03:43:00,
2013-02-09 21:48:00,53.3,51.0,29.79,ESE,115,10.0,13.0,92,0.00,,,0.00,0,Wunderground v.1.15,2013-02-10 03:48:00,
2013-02-09 21:49:00,53.4,51.1,29.79,SE,129,10.0,13.0,92,0.00,,,0.00,0,Wunderground v.1.15,2013-02-10 03:49:00,
2013-02-09 21:54:00,53.5,51.2,29.79,ESE,123,10.0,12.0,92,0.00,,,0.00,0,Wunderground v.1.15,2013-02-10 03:54:00,
2013-02-09 21:55:00,53.6,51.3,29.79,SE,134,10.0,12.0,92,0.00,,,0.00,0,Wunderground v.1.15,2013-02-10 03:55:00,
2013-02-09 21:58:00,53.7,51.4,29.79,ESE,117,10.0,12.0,92,0.00,,,0.00,0,Wunderground v.1.15,2013-02-10 03:58:00,
2013-02-09 22:02:00,53.8,51.5,29.79,SE,143,10.0,16.0,92,0.00,,,0.00,0,Wunderground v.1.15,2013-02-10 04:02:00,
2013-02-09 22:04:00,53.8,51.5,29.78,ESE,109,10.0,16.0,92,0.00,,,0.00,0,Wunderground v.1.15,2013-02-10 04:04:00,
2013-02-09 22:06:00,53.9,51.6,29.78,SE,126,10.0,16.0,92,0.00,,,0.00,0,Wunderground v.1.15,2013-02-10 04:06:00,
2013-02-09 22:08:00,53.9,51.6,29.78,ESE,104,10.0,16.0,92,0.00,,,0.00,0,Wunderground v.1.15,2013-02-10 04:08:00,
2013-02-09 22:10:00,54.0,51.7,29.78,SE,128,10.0,16.0,92,0.00,,,0.00,0,Wunderground v.1.15,2013-02-10 04:10:00,
2013-02-09 22:13:00,54.1,51.8,29.78,SE,126,9.0,12.0,92,0.00,,,0.00,0,Wunderground v.1.15,2013-02-10 04:13:00,
2013-02-09 22:14:00,54.1,51.8,29.78,ESE,115,9.0,12.0,92,0.00,,,0.00,0,Wunderground v.1.15,2013-02-10 04:14:00,
2013-02-09 22:16:00,54.1,51.8,29.78,ESE,122,9.0,12.0,92,0.00,,,0.00,0,Wunderground v.1.15,2013-02-10 04:16:00,
2013-02-09 22:17:00,54.1,51.8,29.78,SE,138,9.0,12.0,92,0.00,,,0.00,0,Wunderground v.1.15,2013-02-10 04:17:00,
2013-02-09 22:21:00,54.2,51.9,29.78,SE,145,9.0,9.0,92,0.00,,,0.00,0,Wunderground v.1.15,2013-02-10 04:21:00,
2013-02-09 22:24:00,54.3,52.0,29.77,ESE,117,9.0,9.0,92,0.00,,,0.00,0,Wunderground v.1.15,2013-02-10 04:24:00,
2013-02-09 22:25:00,54.4,52.1,29.77,ESE,120,9.0,12.0,92,0.00,,,0.00,0,Wunderground v.1.15,2013-02-10 04:25:00,
2013-02-09 22:30:00,54.5,52.2,29.77,SE,125,10.0,12.0,92,0.00,,,0.00,0,Wunderground v.1.15,2013-02-10 04:30:00,
2013-02-09 22:34:00,54.5,52.2,29.77,SE,134,10.0,10.0,92,0.00,,,0.00,0,Wunderground v.1.15,2013-02-10 04:34:00,
2013-02-09 22:35:00,54.6,52.3,29.77,ESE,118,10.0,10.0,92,0.00,,,0.00,0,Wunderground v.1.15,2013-02-10 04:35:00,
2013-02-09 22:38:00,54.7,52.4,29.77,ESE,122,10.0,12.0,92,0.00,,,0.00,0,Wunderground v.1.15,2013-02-10 04:38:00,
2013-02-09 22:42:00,54.8,52.5,29.76,ESE,121,9.0,11.0,92,0.00,,,0.00,0,Wunderground v.1.15,2013-02-10 04:42:00,
2013-02-09 22:43:00,54.8,52.5,29.76,ESE,113,9.0,14.0,92,0.00,,,0.00,0,Wunderground v.1.15,2013-02-10 04:43:00,
2013-02-09 22:47:00,55.0,52.7,29.76,ESE,104,10.0,14.0,92,0.00,,,0.00,0,Wunderground v.1.15,2013-02-10 04:47:00,
2013-02-09 22:48:00,55.0,52.7,29.76,ESE,123,11.0,14.0,92,0.00,,,0.00,0,Wunderground v.1.15,2013-02-10 04:48:00,
2013-02-09 22:51:00,55.2,52.9,29.75,SE,133,11.0,12.0,92,0.00,,,0.00,0,Wunderground v.1.15,2013-02-10 04:51:00,
2013-02-09 22:53:00,55.2,52.9,29.75,SE,127,11.0,12.0,92,0.00,,,0.00,0,Wunderground v.1.15,2013-02-10 04:53:00,
2013-02-09 22:54:00,55.2,52.9,29.75,SE,134,11.0,12.0,92,0.00,,,0.00,0,Wunderground v.1.15,2013-02-10 04:54:00,
2013-02-09 22:56:00,55.3,53.0,29.75,SE,138,11.0,12.0,92,0.00,,,0.00,0,Wunderground v.1.15,2013-02-10 04:56:00,
2013-02-09 22:59:00,55.5,53.5,29.75,SE,131,10.0,14.0,93,0.00,,,0.00,0,Wunderground v.1.15,2013-02-10 04:59:00,
2013-02-09 23:01:00,55.6,53.3,29.75,SE,146,10.0,14.0,92,0.00,,,0.00,0,Wunderground v.1.15,2013-02-10 05:01:00,
2013-02-09 23:06:00,55.8,53.5,29.75,ESE,118,11.0,17.0,92,0.00,,,0.00,0,Wunderground v.1.15,2013-02-10 05:06:00,
2013-02-09 23:07:00,55.9,53.6,29.75,SE,126,11.0,17.0,92,0.00,,,0.00,0,Wunderground v.1.15,2013-02-10 05:07:00,
2013-02-09 23:11:00,56.1,54.1,29.75,SE,136,11.0,12.0,93,0.00,,,0.00,0,Wunderground v.1.15,2013-02-10 05:11:00,
2013-02-09 23:12:00,56.2,54.2,29.75,SE,141,11.0,13.0,93,0.00,,,0.00,0,Wunderground v.1.15,2013-02-10 05:12:00,
2013-02-09 23:16:00,56.4,54.4,29.74,SSE,162,10.0,13.0,93,0.00,,,0.00,0,Wunderground v.1.15,2013-02-10 05:16:00,
2013-02-09 23:17:00,56.5,54.5,29.75,SE,137,10.0,14.0,93,0.00,,,0.00,0,Wunderground v.1.15,2013-02-10 05:17:00,
2013-02-09 23:19:00,56.7,54.7,29.75,SE,142,10.0,16.0,93,0.00,,,0.00,0,Wunderground v.1.15,2013-02-10 05:19:00,
2013-02-09 23:20:00,56.7,54.7,29.75,SE,134,11.0,16.0,93,0.00,,,0.00,0,Wunderground v.1.15,2013-02-10 05:20:00,
2013-02-09 23:23:00,56.9,54.9,29.74,SE,134,12.0,13.0,93,0.00,,,0.00,0,Wunderground v.1.15,2013-02-10 05:23:00,
2013-02-09 23:27:00,57.2,55.2,29.75,SE,141,12.0,16.0,93,0.00,,,0.00,0,Wunderground v.1.15,2013-02-10 05:27:00,
2013-02-09 23:32:00,57.5,55.5,29.75,SSW,198,11.0,14.0,93,0.00,,,0.00,0,Wunderground v.1.15,2013-02-10 05:32:00,
2013-02-09 23:36:00,57.6,55.6,29.75,SE,132,11.0,14.0,93,0.00,,,0.00,0,Wunderground v.1.15,2013-02-10 05:36:00,
2013-02-09 23:37:00,57.7,55.7,29.75,SE,143,11.0,14.0,93,0.00,,,0.00,0,Wunderground v.1.15,2013-02-10 05:37:00,
2013-02-09 23:39:00,57.7,55.7,29.75,SE,126,11.0,14.0,93,0.00,,,0.00,0,Wunderground v.1.15,2013-02-10 05:39:00,
2013-02-09 23:42:00,58.0,56.0,29.74,SE,130,11.0,11.0,93,0.00,,,0.00,0,Wunderground v.1.15,2013-02-10 05:42:00,
2013-02-09 23:44:00,58.0,56.0,29.74,SSE,155,11.0,11.0,93,0.00,,,0.00,0,Wunderground v.1.15,2013-02-10 05:44:00,
2013-02-09 23:45:00,58.1,56.1,29.74,SE,146,11.0,13.0,93,0.00,,,0.00,0,Wunderground v.1.15,2013-02-10 05:45:00,
2013-02-09 23:48:00,58.3,56.3,29.74,East,92,11.0,17.0,93,0.00,,,0.00,0,Wunderground v.1.15,2013-02-10 05:48:00,
2013-02-09 23:51:00,58.4,56.4,29.74,SE,129,12.0,12.0,93,0.00,,,0.00,0,Wunderground v.1.15,2013-02-10 05:51:00,
2013-02-09 23:53:00,58.5,56.5,29.73,SE,138,12.0,17.0,93,0.00,,,0.00,0,Wunderground v.1.15,2013-02-10 05:53:00,
2013-02-09 23:56:00,58.7,56.7,29.74,SE,142,13.0,17.0,93,0.00,,,0.00,0,Wunderground v.1.15,2013-02-10 05:56:00,
2013-02-09 23:58:00,58.8,56.8,29.73,SE,130,12.0,17.0,93,0.00,,,0.00,0,Wunderground v.1.15,2013-02-10 05:58:00,